GFSSGP_sfc_dewp_000.txt.gz
Dewpoint
54 50 48 42 30 30 26 23 32 21 29 24 26 27 28 32 31 26 48 58 60 62 65 68 70 71 71 72 71 71 71 71 69 70 69 69 68 67 67 67 68 69 69 68 67 66 65 65 65
48 46 43 38 31 21 16 29 26 22 22 29 28 28 29 27 39 44 52 58 61 63 64 65 69 70 71 72 72 71 71 70 69 69 67 67 67 67 66 65 65 65 67 66 64 62 60 60 59
45 42 39 33 29 21 21 23 21 22 25 25 24 27 34 26 40 45 53 58 60 61 63 64 68 69 70 71 70 70 71 70 68 66 65 65 64 63 63 63 64 64 63 61 60 58 57 56 56
41 35 32 31 29 30 26 25 19 23 24 25 24 22 24 33 37 43 52 59 59 60 61 65 67 68 68 68 69 68 69 66 65 64 65 64 63 62 61 59 61 60 59 58 57 55 54 54 54
37 33 24 26 25 26 26 26 21 22 29 23 24 25 24 30 38 46 56 58 58 57 59 62 67 67 66 66 67 67 67 66 64 64 64 63 61 59 57 57 57 57 56 55 54 54 54 55 53
31 31 25 21 21 25 26 23 22 23 22 22 30 29 23 34 42 46 55 56 56 57 58 61 64 66 66 66 67 66 66 65 64 63 62 60 57 57 55 55 55 54 54 53 53 53 52 51 51
32 30 27 25 23 24 25 23 22 21 29 21 23 30 24 31 36 50 54 53 54 56 57 58 60 62 64 65 65 66 66 64 63 61 59 57 56 55 54 54 54 53 53 53 50 50 50 50 49
35 31 28 27 23 21 24 21 19 20 18 24 24 22 22 35 43 50 51 51 53 54 55 56 57 57 58 59 62 63 63 62 61 60 59 58 56 55 54 56 54 53 53 51 49 48 48 47 46
31 23 21 21 21 20 24 25 30 24 27 23 24 24 27 35 46 48 47 49 50 52 53 54 54 54 54 54 56 59 61 60 59 58 56 51 46 47 46 49 54 51 51 49 47 45 44 43 42
32 22 19 20 22 22 22 22 21 31 21 19 20 23 30 35 43 47 47 49 50 51 52 52 52 52 51 52 53 53 54 53 51 50 47 42 40 42 44 49 52 51 50 46 45 42 40 34 30
31 26 25 25 25 27 24 23 22 21 21 21 20 20 26 32 37 46 47 49 50 52 53 52 51 50 49 49 50 50 49 48 47 45 40 37 35 41 42 41 39 38 39 34 32 29 28 27 28
32 31 28 28 27 28 25 24 22 21 24 23 22 21 24 29 33 39 44 46 48 49 51 52 50 49 47 47 48 48 47 44 43 41 37 32 35 37 36 33 30 29 29 27 28 28 27 26 26
30 30 31 31 30 29 29 28 27 23 24 24 23 23 23 26 30 32 37 40 43 46 50 50 50 49 47 45 46 45 44 44 41 38 36 33 35 33 32 30 28 27 27 26 25 25 25 24 23
27 28 27 27 27 28 27 25 27 24 26 23 24 24 24 23 26 30 31 31 34 38 45 49 48 49 47 45 45 45 44 41 38 35 35 32 34 32 32 30 27 26 25 25 25 23 22 23 22
27 24 23 23 24 26 27 25 24 25 29 22 20 21 22 24 25 26 27 29 30 31 34 45 47 47 46 45 43 43 42 38 36 35 33 33 33 31 31 30 27 25 26 25 25 23 22 20 19
20 27 18 17 25 23 21 14 14 15 18 19 20 21 21 22 24 25 26 27 29 30 28 33 42 45 45 44 40 40 38 37 36 34 33 33 32 30 30 29 26 26 26 24 22 20 19 18 18
19 16 16 17 21 20 21 17 18 19 21 20 20 20 21 21 22 23 25 26 28 29 28 26 35 40 43 42 38 36 34 35 34 33 32 32 31 30 29 29 26 26 25 23 20 20 17 16 17
15 17 18 16 15 19 20 21 20 22 22 21 21 21 20 21 21 21 22 26 27 28 28 26 28 34 38 39 34 32 32 33 33 31 30 31 30 30 29 28 26 26 25 23 20 20 23 21 19
14 15 15 16 17 18 16 16 17 18 21 19 18 19 21 21 22 23 23 24 27 27 27 25 25 29 33 33 31 31 31 31 31 31 29 29 29 29 27 27 25 25 23 23 18 21 19 19 21
21 19 17 18 20 19 19 18 18 19 19 18 18 18 18 19 19 19 20 23 26 26 26 25 24 26 30 31 31 30 30 30 29 31 28 27 28 27 26 26 24 24 22 21 20 21 22 21 21
20 20 18 18 20 20 18 15 18 19 20 19 20 19 19 19 19 19 20 23 25 26 25 25 24 24 27 29 29 26 25 26 27 28 27 25 26 27 27 25 24 23 22 20 20 20 20 18 20
17 21 20 20 19 15 18 11 12 14 13 14 14 15 17 18 20 21 21 23 23 25 27 25 25 24 26 27 27 25 25 25 26 26 28 26 25 25 26 25 23 23 23 21 21 20 19 19 17
20 20 19 20 19 19 18 14 19 14 13 13 14 15 17 17 17 18 18 19 23 24 26 26 24 24 25 26 26 25 25 26 25 26 26 26 24 24 25 24 23 22 22 21 21 21 20 18 21
22 20 20 22 19 17 17 14 11 11 12 16 11 12 15 16 18 19 20 21 22 25 25 24 24 24 25 25 25 24 24 23 24 24 25 25 23 23 23 23 22 22 21 21 21 22 20 20 19
20 19 16 14 16 15 17 15 12 12 14 13 13 14 16 19 19 19 21 22 23 24 23 23 24 24 24 24 24 24 24 23 22 22 23 23 23 22 21 22 21 21 20 21 22 21 21 20 19
20 19 19 15 13 16 18 15 19 16 16 17 16 18 18 19 19 20 24 24 24 24 23 22 23 23 23 24 24 24 23 23 22 22 23 23 23 22 21 21 20 20 20 21 21 22 21 20 20
17 18 21 21 23 20 17 18 18 20 16 15 16 19 21 20 20 19 23 24 24 24 24 23 23 24 23 23 24 24 23 23 22 21 22 22 22 21 20 20 19 19 20 20 21 21 20 20 20
18 20 18 20 17 16 16 15 17 17 17 17 18 20 27 26 22 20 22 26 25 25 24 23 23 23 24 24 23 23 23 23 22 22 21 21 21 20 20 19 18 18 19 20 20 20 20 19 19
24 19 19 19 22 18 18 17 18 17 18 19 24 27 27 27 28 29 29 29 29 28 26 25 24 24 24 24 24 24 24 23 23 22 22 21 21 19 19 19 18 18 18 19 19 19 19 18 19
21 24 22 21 19 19 20 20 23 22 23 28 29 30 30 28 26 28 29 29 29 31 33 31 28 26 26 25 24 24 24 23 22 22 21 21 20 20 19 18 18 17 17 18 18 19 19 18 18

GFSSGP_sfc_dewp_003.txt.gz
Dewpoint
52 50 48 44 34 33 28 27 28 27 25 28 28 30 30 29 31 27 47 57 60 60 66 70 71 71 72 72 72 72 71 70 70 70 69 69 69 69 68 69 70 70 70 69 68 66 66 65 65
48 47 45 39 31 24 18 27 29 27 27 31 29 31 29 28 35 41 52 57 61 62 67 69 70 71 72 72 72 72 71 71 70 70 70 69 69 67 66 65 66 69 68 67 65 63 62 61 61
45 42 40 35 29 22 20 26 25 25 27 29 28 30 29 30 35 43 52 59 62 65 67 68 70 71 72 72 72 72 72 72 70 69 68 66 65 65 64 64 65 65 66 63 62 60 59 58 57
42 38 34 33 30 30 26 28 23 25 27 28 28 24 25 31 37 43 53 60 62 64 65 67 70 70 71 72 71 71 71 71 69 67 66 65 64 63 63 62 64 64 62 61 58 57 56 56 56
38 34 27 27 27 28 29 30 28 24 25 25 27 26 25 32 40 47 57 60 62 63 64 67 69 70 70 70 71 70 70 68 67 65 64 65 64 62 61 60 61 60 58 56 56 56 57 54 54
34 33 27 22 21 24 27 28 24 24 25 25 25 27 27 35 38 45 58 60 61 62 62 65 66 67 67 66 69 69 69 68 67 65 63 64 62 60 59 58 58 57 56 55 56 55 53 53 52
34 32 26 27 25 27 27 25 24 24 25 23 26 26 26 26 35 49 58 58 59 60 61 63 65 65 65 65 67 68 68 68 67 65 64 62 60 58 57 57 56 56 55 55 53 53 53 52 50
37 34 30 28 26 23 26 23 22 22 21 26 26 23 24 31 45 53 56 57 57 58 60 61 63 63 64 65 64 65 66 66 65 64 62 60 60 59 58 58 57 55 56 53 52 52 51 49 47
34 26 24 23 24 21 25 23 23 24 22 24 25 25 26 39 50 52 54 55 56 56 57 59 60 61 61 62 62 63 63 63 62 61 59 57 54 54 53 54 58 55 54 52 50 49 48 46 44
33 26 23 22 22 24 25 24 25 24 22 22 22 24 29 39 47 48 51 53 54 56 56 57 58 58 58 57 60 61 60 60 57 56 53 50 49 49 47 52 56 56 54 50 47 44 40 33 28
33 28 27 23 22 26 28 26 25 24 25 25 24 24 25 32 40 46 48 50 52 55 56 56 56 56 56 55 56 56 57 55 54 52 48 46 45 47 47 48 47 47 46 42 40 32 29 31 28
31 31 28 30 29 29 27 28 26 23 26 28 26 25 25 28 32 38 45 48 51 53 54 55 55 54 54 53 53 54 54 52 50 49 45 42 42 44 44 43 41 41 37 34 31 31 31 29 28
32 31 31 32 30 30 30 30 29 26 26 26 26 26 25 25 28 33 39 45 49 51 53 54 54 54 53 51 52 51 52 50 49 46 42 40 39 42 41 39 34 32 29 29 28 28 27 28 25
29 30 28 28 27 28 27 25 27 26 27 24 24 24 24 25 25 29 32 35 44 48 51 52 53 54 52 51 51 50 50 49 46 44 41 37 37 39 39 33 29 28 27 27 27 26 25 25 25
28 25 23 23 24 25 28 25 25 25 26 24 22 21 21 22 24 25 27 30 34 40 46 52 52 53 52 51 49 50 49 46 45 43 40 36 35 35 35 32 28 27 28 28 26 24 23 22 20
22 23 19 18 24 23 23 15 17 17 18 17 17 17 20 21 22 24 26 27 30 33 37 45 51 51 51 51 50 48 47 45 45 42 39 37 34 34 32 31 27 27 27 26 24 22 21 20 19
21 16 16 18 21 21 23 20 20 21 20 20 20 20 20 20 21 23 26 27 29 31 32 35 47 49 50 50 50 48 46 45 43 40 38 35 33 33 31 31 28 27 26 25 21 19 19 18 19
15 16 17 16 15 19 20 21 21 22 21 20 20 20 21 22 22 23 25 27 28 30 31 32 38 46 48 49 48 45 42 44 41 38 36 34 33 33 32 31 28 28 26 24 22 22 22 21 19
15 14 14 15 17 19 17 17 18 19 20 19 19 19 19 21 22 24 26 28 29 30 31 31 31 39 45 45 44 40 40 40 38 38 37 33 32 32 31 30 27 26 25 24 21 22 22 20 21
20 19 18 19 20 19 20 18 18 19 19 19 19 19 21 21 21 22 23 25 26 28 30 30 28 33 40 42 42 39 40 39 37 36 34 32 33 31 30 30 27 26 25 23 22 23 22 20 21
21 19 18 18 20 20 18 16 19 17 21 21 21 22 21 21 20 20 21 23 28 28 30 28 28 29 35 37 37 29 31 30 31 31 31 30 31 31 31 29 28 26 24 22 22 23 24 20 21
19 21 21 20 18 15 17 12 16 15 15 17 17 18 17 19 19 20 21 22 23 28 30 29 29 27 31 34 33 32 31 30 31 32 31 29 29 29 31 29 27 26 25 23 23 22 22 23 19
21 21 20 20 20 18 18 14 14 15 14 15 15 18 17 19 22 20 22 24 24 27 29 29 28 27 29 31 31 31 30 30 29 31 30 29 28 29 29 29 27 26 24 24 22 21 20 21 22
22 21 20 22 19 16 17 14 15 12 13 13 15 17 18 20 21 22 24 26 25 27 26 28 26 25 27 29 29 29 29 28 27 28 29 28 27 27 28 27 26 25 23 23 22 22 22 21 21
22 19 16 15 16 15 18 15 15 15 16 16 15 16 21 23 22 23 24 25 26 27 26 24 25 24 25 27 27 28 28 27 27 27 28 27 26 25 25 26 25 24 23 22 22 22 21 21 20
21 19 20 16 17 18 20 19 22 20 21 20 19 21 27 26 24 27 28 29 29 29 28 25 24 25 25 25 26 27 27 26 25 26 28 27 26 26 26 24 24 23 23 22 21 21 21 21 20
19 18 23 22 24 22 18 20 22 25 18 25 28 27 27 27 28 29 29 29 31 32 30 28 26 25 25 25 25 26 26 25 25 25 26 27 27 25 25 24 22 22 22 21 21 20 20 21 21
20 21 19 21 16 16 17 16 18 21 27 28 27 25 21 21 22 26 28 29 29 31 31 30 29 28 27 26 25 24 25 25 25 24 24 25 26 25 24 23 22 21 21 21 21 20 21 20 20
21 19 19 20 22 17 17 20 24 28 28 26 19 14 14 15 19 22 25 28 29 29 29 28 29 28 28 28 28 27 26 25 25 24 23 24 24 23 23 22 22 21 20 20 20 19 20 20 20
25 25 26 28 25 22 23 25 27 26 25 20 8 8 11 14 19 21 23 27 30 29 29 29 29 28 28 29 29 29 27 26 25 24 24 24 23 23 22 21 21 20 20 19 19 20 21 20 20

GFSSGP_sfc_dewp_006.txt.gz
Dewpoint
52 48 48 45 30 29 22 24 26 27 24 25 27 29 27 29 23 22 47 54 58 57 64 69 71 72 72 72 72 72 70 70 70 71 69 68 70 69 69 70 70 70 70 69 68 67 66 66 65
44 45 45 40 24 16 11 24 27 26 25 27 28 29 28 24 31 35 46 55 59 57 64 67 70 72 72 72 72 72 70 70 70 71 70 69 69 67 66 65 69 69 68 67 65 64 62 62 60
42 40 35 31 27 15 16 23 23 23 25 26 27 28 28 26 30 39 50 55 59 58 63 66 70 71 72 72 72 72 71 70 71 71 70 69 66 65 64 64 65 66 66 65 62 60 60 58 58
42 37 34 24 21 24 23 19 25 26 25 27 26 24 25 29 34 41 51 57 60 59 63 67 70 71 72 72 72 72 71 71 71 70 67 66 65 65 63 63 65 65 64 62 59 58 57 57 55
39 34 24 24 21 22 24 25 26 24 23 24 26 23 24 28 36 43 53 58 59 61 64 66 70 71 71 72 72 72 71 71 71 68 67 66 66 64 63 62 63 62 61 59 57 58 56 55 54
31 33 19 16 16 21 25 26 26 24 23 22 24 24 24 31 34 39 53 58 59 61 65 66 67 69 70 71 71 71 71 70 69 67 64 66 65 63 61 61 61 60 58 57 57 56 54 53 52
27 27 18 20 21 24 25 24 22 21 22 22 24 22 24 25 33 43 52 57 60 61 64 65 66 67 66 67 68 69 70 69 68 67 65 64 64 61 60 60 59 58 56 56 55 54 53 51 49
35 30 26 25 19 19 23 22 22 21 18 24 25 19 18 28 42 49 54 56 59 61 63 64 65 65 65 64 64 66 68 67 67 66 64 63 62 61 60 60 59 56 56 54 53 53 51 49 47
34 25 21 20 22 15 24 22 22 22 22 23 25 24 24 36 45 48 52 55 57 59 62 63 63 64 63 63 62 63 65 65 65 64 62 59 58 56 55 56 59 57 55 53 52 51 49 46 43
31 27 21 22 20 18 21 24 24 23 22 23 24 25 26 32 39 40 44 46 54 56 58 60 61 62 62 61 63 64 64 65 64 63 61 59 55 54 53 54 58 58 56 52 51 48 43 33 27
34 25 25 23 21 22 23 24 26 23 22 22 22 21 23 28 30 35 37 40 44 51 55 58 59 60 60 60 61 62 63 63 63 62 59 57 53 53 52 52 53 53 52 47 44 39 28 31 27
30 31 30 28 28 29 27 27 27 26 22 21 22 24 27 26 27 30 33 37 41 46 51 55 57 58 59 59 60 60 61 61 60 59 57 54 53 52 49 51 51 52 48 46 38 33 34 31 28
32 29 30 31 31 29 30 29 27 25 25 24 24 28 28 26 27 29 30 34 39 43 47 51 56 56 57 58 57 58 59 59 58 57 55 53 51 50 47 49 48 48 44 38 32 31 30 30 26
28 30 28 28 28 28 27 22 23 18 21 21 20 20 19 21 25 26 29 31 34 41 44 48 53 55 55 56 56 56 56 57 57 55 53 51 49 46 45 46 45 43 37 29 29 29 28 27 27
27 24 22 21 23 24 27 23 23 20 21 21 17 17 17 19 20 22 24 27 32 35 41 45 50 53 55 55 55 55 55 55 55 53 52 50 47 42 41 43 41 36 31 31 30 28 26 23 22
22 22 18 16 23 23 24 15 16 17 16 16 16 16 18 18 19 21 23 26 27 29 34 40 48 52 53 54 54 54 53 53 53 52 50 48 45 40 39 39 36 31 29 28 26 24 23 22 21
21 15 16 17 20 21 24 17 17 18 18 18 17 17 17 19 21 22 24 26 28 28 30 34 43 49 51 53 53 54 53 52 51 51 49 47 43 39 36 36 33 29 28 26 24 23 23 23 22
15 15 16 17 15 17 17 18 18 18 19 19 18 18 20 20 21 23 24 26 27 30 31 32 36 45 49 51 53 52 52 51 50 49 48 46 42 38 35 33 34 30 28 26 26 25 23 23 22
18 17 16 17 18 20 18 18 18 19 19 19 19 19 20 21 22 21 24 26 28 29 31 31 33 38 46 49 50 50 50 50 49 49 47 45 42 39 36 33 32 29 29 29 26 25 25 24 23
21 20 19 19 20 20 18 18 19 20 20 20 20 20 21 20 19 22 24 27 28 29 30 31 32 33 42 45 47 48 47 48 47 48 46 44 42 38 35 34 33 30 29 27 27 26 24 23 24
21 20 20 19 21 20 19 19 19 16 20 18 19 20 18 21 22 23 25 27 29 29 31 29 30 31 35 42 44 44 39 42 44 45 44 42 40 38 38 34 33 32 29 29 30 29 28 25 24
20 22 22 21 19 19 18 17 20 18 16 17 18 19 20 23 24 25 27 28 29 29 30 30 31 30 31 37 39 40 38 37 38 38 40 40 39 37 36 35 33 33 31 28 31 27 28 30 24
20 22 20 20 20 20 17 15 17 17 15 15 17 22 26 25 27 28 31 32 31 32 32 29 28 28 29 32 35 35 36 36 35 34 36 37 37 37 36 34 33 33 31 31 30 27 28 28 29
23 22 21 23 21 18 18 16 15 12 14 17 20 26 27 28 29 29 31 32 31 32 31 31 28 26 27 29 31 32 33 33 32 32 33 34 34 34 34 35 35 33 30 30 29 29 29 29 27
22 21 23 20 22 19 18 17 15 16 20 23 26 26 26 27 28 28 29 29 31 30 31 29 29 27 28 27 27 28 29 30 30 30 30 32 32 31 32 33 33 32 31 29 28 29 28 28 27
23 23 22 21 21 20 23 18 18 23 28 27 27 25 24 24 26 28 29 29 28 28 28 28 28 28 29 29 28 27 27 26 26 28 29 30 31 31 32 31 31 30 30 28 27 27 27 27 27
22 20 23 25 31 23 18 18 21 27 27 27 24 22 20 22 23 25 27 28 26 27 27 26 25 26 28 29 29 29 28 28 26 27 28 28 31 29 30 30 30 30 29 29 27 26 26 26 26
21 23 22 21 20 21 16 16 17 23 27 25 21 19 17 19 21 22 24 27 26 26 26 24 26 25 25 28 29 29 30 29 28 28 28 27 29 30 29 29 29 29 29 28 26 26 25 24 24
22 19 19 20 22 22 22 19 23 27 27 23 18 16 17 18 19 21 20 25 27 25 26 23 22 24 24 25 26 28 29 29 29 29 28 28 28 27 28 28 28 28 27 27 26 25 24 24 24
26 26 25 25 24 22 23 21 28 27 24 20 13 14 15 16 15 17 22 19 25 21 22 24 23 24 25 24 25 26 26 27 27 28 29 30 28 28 27 26 26 27 26 26 25 24 24 24 22

GFSSGP_sfc_dewp_009.txt.gz
Dewpoint
52 44 43 42 32 26 19 21 23 24 24 25 26 26 25 25 22 25 47 51 55 55 60 69 72 72 72 72 72 72 71 70 70 71 69 70 70 70 70 70 71 70 69 69 68 68 67 66 64
39 39 41 31 25 16 13 20 22 24 25 26 26 27 26 22 26 31 42 53 56 55 60 66 71 72 72 72 72 72 71 70 70 71 69 69 69 68 67 69 70 69 68 67 66 65 63 62 60
42 37 31 27 23 16 17 20 21 21 25 26 25 27 25 22 28 34 48 53 56 55 61 65 71 72 72 72 72 72 71 70 70 71 70 69 68 66 64 65 66 67 66 65 63 62 61 59 58
37 33 29 22 19 18 18 17 20 22 25 26 25 23 24 26 30 39 49 54 56 54 60 68 71 72 72 72 72 72 70 70 70 71 70 68 66 65 63 63 65 65 65 63 60 59 59 57 55
34 28 22 21 18 17 16 18 23 24 23 23 24 21 22 28 32 39 48 54 56 55 59 65 70 71 71 72 72 72 71 70 71 71 69 67 66 64 63 63 64 64 63 60 58 58 56 55 52
28 26 19 16 13 14 18 25 24 23 22 22 22 22 22 32 32 36 45 53 56 57 61 62 67 69 70 71 72 72 72 71 71 70 68 68 66 64 63 62 63 62 61 58 58 56 54 53 51
29 26 19 18 15 16 19 24 22 20 17 17 23 18 18 27 33 39 45 51 55 57 61 63 66 68 67 69 70 70 71 71 70 68 67 67 66 63 63 62 62 60 58 58 57 55 54 52 49
30 26 21 18 14 14 19 22 23 19 16 23 23 18 17 33 39 44 48 50 54 58 61 62 63 65 66 67 66 67 68 68 68 66 65 64 63 63 62 61 61 58 57 56 55 54 53 50 47
33 23 19 18 16 13 20 20 21 22 21 19 22 24 24 31 39 43 46 50 53 56 60 62 62 63 63 63 63 64 66 66 66 64 62 61 61 60 58 58 60 59 58 55 54 53 51 48 44
30 25 20 19 16 15 16 17 19 20 18 16 17 20 24 24 30 35 37 40 47 52 56 60 61 62 62 61 62 63 64 66 66 65 63 62 61 57 54 55 59 60 58 55 53 51 48 44 32
29 24 18 20 21 21 19 19 19 21 20 15 13 14 17 21 23 28 30 33 37 42 50 56 59 60 61 61 61 62 63 64 64 64 63 62 60 56 54 55 55 56 54 50 50 45 34 34 33
30 24 26 26 25 27 23 21 20 23 22 22 22 21 21 22 24 24 26 29 32 37 41 50 55 58 60 60 60 61 61 63 63 63 63 62 59 56 54 53 54 56 52 50 48 41 41 36 32
31 27 23 25 26 29 28 25 23 22 21 20 21 20 20 22 24 26 27 30 33 35 38 44 54 56 57 60 60 60 60 61 62 63 62 60 57 55 52 52 53 53 51 47 44 38 37 37 31
25 28 26 24 24 25 25 24 22 19 18 17 17 17 16 17 18 22 25 27 31 35 36 41 47 55 55 57 59 59 59 60 61 60 60 59 56 53 51 51 51 51 48 44 37 37 36 35 34
26 23 21 20 19 21 24 21 20 18 16 14 15 14 15 16 16 18 20 24 26 30 35 40 45 51 54 55 57 58 58 58 59 59 58 57 55 52 49 49 49 49 45 40 37 35 34 32 30
22 21 20 19 20 22 23 17 17 17 16 17 17 16 17 17 17 20 23 25 26 28 30 33 39 47 53 54 55 56 56 57 58 58 56 55 54 50 47 46 47 45 40 35 34 33 32 30 28
22 19 19 18 19 20 23 19 20 20 19 18 18 18 18 19 21 22 24 26 27 28 29 31 35 42 50 54 54 55 56 56 56 56 55 54 52 49 45 44 44 41 36 33 31 30 30 30 28
20 19 19 19 21 20 20 19 19 19 19 19 19 19 20 21 20 25 27 30 30 31 32 32 33 36 46 51 54 54 55 55 54 54 53 52 51 48 44 42 41 38 35 32 32 32 31 31 30
20 20 19 20 21 22 21 19 19 21 20 19 19 18 20 20 24 27 29 30 30 32 32 31 32 34 40 47 50 52 53 53 54 54 53 51 49 47 44 40 39 36 34 33 33 33 32 31 29
21 20 20 22 20 21 21 21 22 22 20 19 18 19 23 24 26 28 30 31 30 30 30 31 32 33 36 44 47 48 49 51 51 52 52 50 49 46 42 40 37 36 33 33 33 32 31 32 29
21 21 21 21 21 23 21 20 22 22 20 18 18 22 24 25 27 30 31 31 32 32 31 29 30 31 34 40 43 45 46 43 45 48 49 48 47 46 45 40 37 36 33 32 34 33 32 30 31
21 22 22 22 22 21 22 18 20 19 18 19 24 27 26 28 29 31 31 30 31 32 33 30 30 29 31 35 37 40 42 39 40 40 44 46 46 45 44 41 38 37 34 32 35 32 32 33 29
21 22 21 22 24 24 22 18 17 18 17 17 26 27 28 29 29 29 31 31 31 33 33 32 31 30 29 30 33 34 34 36 37 36 36 39 42 43 44 42 39 37 34 33 34 31 32 31 31
23 22 22 24 24 22 22 19 15 14 16 20 26 27 28 28 29 29 30 30 29 31 31 32 30 30 31 30 29 29 30 31 33 34 34 35 37 40 40 41 40 38 35 33 33 33 32 31 30
23 21 23 24 25 23 20 18 17 17 22 23 26 25 26 28 28 29 29 28 29 29 29 27 28 29 30 31 30 31 30 29 28 29 31 33 34 36 37 38 38 37 36 34 33 34 31 31 30
27 25 27 24 23 23 26 22 20 26 27 26 25 24 25 25 26 27 27 27 26 28 27 27 26 25 27 29 30 32 31 30 29 29 30 31 32 34 36 35 36 36 35 33 31 32 32 31 31
24 22 26 26 29 26 22 22 21 28 26 24 23 22 22 23 24 24 25 27 26 26 25 24 24 24 23 24 28 29 29 30 31 31 31 31 32 29 32 34 34 34 34 33 32 31 31 30 31
26 32 32 29 25 23 17 16 16 20 25 24 22 21 21 21 21 22 21 26 25 24 25 23 22 22 22 22 24 25 25 26 26 29 32 32 31 31 31 33 32 33 33 33 32 31 31 30 29
23 22 23 21 22 21 19 17 19 25 27 24 21 19 20 19 18 18 21 19 23 20 21 22 21 20 21 21 23 26 25 23 22 23 25 29 32 31 30 30 31 32 32 32 31 30 29 28 28
30 26 25 24 25 24 24 26 27 27 26 24 19 18 18 19 10 10 20 13 13 15 16 16 16 19 21 18 20 24 24 26 24 21 22 27 27 30 31 30 29 30 30 30 30 29 28 28 27

GFSSGP_sfc_dewp_012.txt.gz
Dewpoint
57 51 43 44 39 35 27 26 24 25 25 26 26 27 26 26 24 29 47 52 55 59 66 70 72 72 72 73 72 72 72 71 70 70 70 70 71 70 70 70 71 70 70 69 68 68 67 66 63
46 38 44 40 32 25 20 21 24 25 27 26 27 27 26 24 27 40 49 54 55 57 67 68 71 72 72 73 72 72 72 71 71 71 70 70 70 70 70 70 70 70 69 67 67 66 65 62 61
46 36 39 34 28 21 21 21 20 22 26 27 25 28 25 25 30 37 52 54 56 56 66 67 71 72 72 72 72 72 72 72 71 71 70 70 69 67 67 67 68 68 67 66 64 64 62 61 57
41 39 34 27 24 20 18 18 20 23 26 26 26 24 25 28 33 44 52 55 55 55 62 68 71 72 72 72 72 72 71 71 71 71 70 70 68 67 64 63 65 67 66 64 61 61 60 57 54
39 36 29 26 23 19 16 22 24 24 23 24 25 23 24 31 39 41 51 54 56 55 60 69 70 71 72 72 72 72 72 71 71 72 71 69 69 65 63 62 63 64 64 62 60 60 57 55 53
35 30 26 23 17 17 20 23 23 23 22 23 23 22 24 34 34 38 46 53 55 56 60 68 68 69 70 71 72 72 72 71 71 72 71 70 68 66 63 63 62 63 63 60 59 57 55 53 51
36 33 26 22 19 21 21 24 21 19 17 20 23 19 23 32 37 39 49 53 54 57 61 62 67 68 67 69 70 71 71 71 71 71 70 68 67 66 63 63 62 62 61 59 59 55 54 53 50
36 30 23 21 20 20 22 22 23 20 18 23 24 20 31 35 40 43 51 54 56 56 61 62 65 67 68 68 67 68 69 70 70 68 66 65 64 64 63 62 63 62 59 59 57 55 53 51 47
37 28 24 22 21 19 22 20 21 22 21 22 23 23 24 35 40 42 50 49 53 54 59 61 62 64 66 67 66 65 66 67 66 65 63 61 62 61 60 60 61 61 59 57 56 54 52 49 45
34 31 27 21 20 20 19 18 18 17 19 20 18 20 24 26 33 36 38 41 49 52 55 60 62 62 63 64 64 67 67 67 66 64 62 62 61 60 59 57 60 60 60 58 55 53 51 48 38
34 29 25 21 24 26 26 23 20 19 22 22 21 22 23 23 24 27 31 32 36 47 53 57 60 61 62 62 62 65 65 65 66 65 63 62 61 58 55 55 56 56 55 53 52 50 45 37 32
28 28 25 28 27 28 27 27 25 23 22 25 24 23 23 22 23 26 27 29 30 35 43 53 58 59 61 62 61 62 62 63 63 64 64 62 61 56 53 55 55 54 52 50 49 44 38 34 31
28 30 29 27 27 26 28 29 27 25 24 23 21 21 22 20 22 26 29 30 32 33 36 43 55 57 59 60 60 60 61 62 62 62 62 62 60 55 53 53 54 54 52 49 46 39 37 34 30
28 29 27 25 24 24 25 25 25 23 23 20 19 19 18 18 19 20 23 27 30 33 35 37 46 55 56 58 59 60 60 60 61 61 60 61 59 54 52 51 52 53 50 47 41 38 37 34 32
28 25 24 22 23 23 26 22 21 22 18 17 17 17 17 19 19 23 27 28 29 31 34 37 41 50 55 55 58 59 59 59 60 61 60 59 56 54 51 50 51 51 48 43 37 36 36 33 32
24 24 22 23 21 28 20 18 21 21 20 20 19 19 19 20 26 28 30 30 31 32 32 34 37 43 52 54 56 58 58 58 58 59 58 58 56 53 50 49 49 49 44 38 36 34 33 31 29
24 21 21 23 21 24 22 20 22 23 21 20 19 20 20 24 27 29 30 30 32 32 32 33 36 40 46 53 54 55 56 57 57 57 57 56 55 52 49 47 47 46 40 35 34 32 32 30 29
22 22 21 21 21 23 22 21 23 21 21 21 22 20 22 26 28 30 31 31 31 31 31 32 34 37 44 50 53 54 55 55 55 55 55 54 53 52 47 45 45 42 37 35 33 31 31 31 30
23 22 21 21 22 23 22 21 21 22 23 22 19 21 25 26 30 31 32 31 31 29 29 31 32 34 39 48 50 51 52 53 54 54 53 53 52 50 46 42 42 38 35 33 32 32 30 31 27
24 22 21 22 24 21 21 22 24 24 24 22 22 25 26 28 30 30 31 31 31 30 29 29 30 32 36 43 46 48 46 47 47 52 52 51 50 48 46 42 39 36 35 33 33 31 31 31 29
24 22 22 22 24 23 22 22 23 25 24 22 25 26 28 29 30 30 30 31 31 31 30 30 29 30 32 36 42 44 44 42 44 44 47 50 49 48 45 42 39 36 34 33 33 32 29 30 29
23 24 24 24 22 21 23 20 22 22 19 26 26 28 28 29 30 30 29 30 31 31 32 30 31 31 30 31 33 35 38 38 40 41 40 41 46 46 45 42 39 37 35 33 34 32 29 30 27
25 25 23 23 24 25 24 22 21 22 20 26 27 28 28 29 29 29 29 29 30 30 31 31 31 31 31 31 31 31 32 34 35 36 34 35 40 43 43 43 40 38 36 33 34 31 31 31 29
26 25 24 23 25 24 24 21 20 19 21 25 26 27 28 29 29 29 30 29 29 30 29 28 29 30 31 31 31 31 30 30 30 31 32 34 35 38 41 40 40 39 37 34 33 33 32 31 30
25 23 24 22 23 22 22 21 20 21 23 26 26 26 28 28 28 28 27 27 28 28 29 26 26 25 28 30 30 30 30 30 30 30 31 31 32 34 35 36 37 38 38 36 34 33 32 31 30
27 27 28 22 19 21 26 23 23 27 27 26 25 25 25 25 26 27 27 26 27 27 25 25 25 24 24 25 28 28 27 28 30 31 31 32 31 32 31 32 34 35 36 36 34 33 33 31 31
25 24 29 25 23 23 23 24 25 27 25 23 23 23 23 24 24 23 27 26 25 26 25 23 23 23 23 24 25 25 24 24 24 27 30 30 32 30 30 31 31 32 34 34 34 32 31 31 30
25 31 29 30 23 19 22 21 20 26 25 23 22 22 22 22 22 22 21 25 22 23 24 22 21 22 22 23 25 25 25 24 22 22 24 26 28 30 31 31 30 31 32 32 32 31 31 30 30
25 25 30 27 25 20 17 17 20 26 26 24 23 22 21 20 15 19 19 15 18 19 19 18 20 21 22 20 22 24 25 26 24 22 22 24 26 27 28 30 30 30 30 30 30 31 31 29 29
29 29 28 26 23 25 23 23 27 27 26 25 20 20 18 19 9 12 17 12 12 15 14 14 14 19 21 19 19 22 23 24 23 23 23 24 25 27 28 28 29 29 29 29 29 29 29 28 28

GFSSGP_sfc_dewp_015.txt.gz
Dewpoint
56 47 50 40 31 30 22 22 23 24 24 26 26 26 25 26 24 25 47 52 60 66 68 70 72 72 73 73 73 72 72 71 70 70 70 70 70 70 69 69 71 71 70 68 68 68 67 65 64
47 44 40 38 28 22 18 21 23 23 24 26 26 27 26 24 31 44 51 54 54 66 68 69 71 72 73 73 72 72 72 72 70 70 70 71 71 70 70 70 70 70 69 68 67 67 64 63 60
48 43 34 29 25 17 17 19 21 23 26 26 25 27 25 25 32 45 52 55 55 66 67 69 71 72 72 73 72 72 72 72 71 71 71 71 70 69 69 69 69 69 68 67 66 64 63 60 57
40 37 32 23 22 22 14 18 22 24 25 27 25 23 25 28 35 46 52 56 54 64 66 69 71 72 72 72 72 72 72 71 71 71 70 70 69 68 66 66 69 68 66 65 63 62 60 57 54
37 32 24 25 21 17 21 24 24 24 23 25 24 23 23 34 43 50 53 56 54 56 65 69 71 72 72 72 72 72 72 72 72 72 71 71 70 68 63 63 64 67 65 63 62 60 58 55 52
32 26 22 21 17 18 23 22 22 20 20 22 22 21 22 34 35 43 53 55 56 56 67 69 68 70 71 72 72 72 72 71 71 72 72 71 70 67 64 63 63 63 64 62 61 58 56 53 50
36 28 23 28 18 17 23 23 20 20 18 19 23 19 29 31 38 41 48 52 54 56 65 68 69 69 68 69 70 71 71 71 71 71 71 70 69 67 66 64 63 62 63 61 60 56 54 52 49
32 26 29 26 17 18 22 20 21 20 19 23 23 19 29 32 38 41 46 51 54 57 60 65 66 67 68 68 67 68 69 69 70 70 68 67 65 65 64 63 64 62 62 60 58 56 54 51 47
32 24 21 21 17 18 21 19 20 21 21 22 22 22 22 35 41 47 47 47 50 54 60 61 65 65 67 67 66 65 66 67 67 67 64 63 62 62 61 61 63 63 61 59 57 55 53 50 44
30 27 25 22 20 21 23 23 21 17 17 18 20 22 23 37 38 38 40 43 47 50 55 61 62 64 65 67 66 65 67 67 66 66 63 62 61 60 60 58 61 62 61 60 57 55 53 47 35
32 26 27 25 27 27 26 25 24 20 21 21 21 22 24 23 23 32 33 36 38 47 53 59 61 62 64 65 64 66 67 66 66 65 62 62 61 60 58 57 57 57 57 55 55 52 47 43 38
28 29 27 30 28 27 26 27 27 27 26 25 24 25 24 22 22 22 24 25 28 33 48 55 60 61 62 63 62 64 66 64 63 65 62 62 61 59 56 55 54 54 53 51 49 47 43 36 32
25 29 30 29 28 26 26 25 27 27 27 27 25 23 20 20 20 23 27 30 31 31 33 50 57 60 61 61 61 61 63 63 63 62 63 62 61 58 54 53 54 52 51 50 48 45 37 34 30
28 28 26 26 25 25 24 24 25 24 24 20 18 18 18 26 29 30 30 32 32 32 33 35 53 58 59 60 60 60 60 60 61 61 61 62 62 57 54 53 53 52 51 49 46 40 36 34 31
27 23 23 23 24 23 25 21 21 23 21 20 20 20 25 28 29 30 30 31 32 32 33 34 36 54 57 58 59 59 59 59 60 60 59 59 59 56 53 52 52 53 50 47 41 37 36 33 31
24 23 21 23 23 26 20 18 21 21 21 20 21 20 27 29 30 30 30 30 30 31 32 33 36 41 55 56 57 59 58 58 58 59 60 58 57 55 52 51 51 51 48 43 38 36 35 32 31
24 19 20 22 24 24 20 18 20 22 23 22 21 25 27 30 31 31 31 31 30 29 31 33 35 40 49 54 55 56 56 57 57 58 58 58 56 53 51 50 49 48 44 39 36 33 33 30 29
21 21 21 21 22 23 22 20 20 22 22 21 24 26 29 30 30 31 32 32 31 29 29 31 34 38 45 50 52 53 54 55 56 56 57 57 56 53 50 48 48 45 40 36 34 32 31 30 29
21 22 21 22 23 23 22 23 23 22 22 22 24 27 30 30 30 31 31 32 31 30 30 29 31 34 38 44 48 49 50 51 52 54 54 54 55 54 48 46 46 42 39 36 33 31 30 29 28
24 22 21 22 24 21 21 21 23 24 24 23 26 28 30 30 30 30 31 31 31 30 30 31 30 30 33 38 43 44 43 43 45 47 50 51 51 51 49 44 43 40 36 34 33 31 31 30 29
25 23 22 21 23 23 21 22 22 24 25 27 28 29 30 30 29 29 29 30 30 30 30 31 31 31 31 32 34 37 39 40 39 42 43 42 47 48 47 44 41 39 37 35 33 31 30 30 30
23 25 25 24 21 19 26 20 22 23 25 27 28 28 29 29 29 28 28 29 29 29 30 30 31 31 31 31 31 31 32 32 35 36 36 36 39 45 46 45 42 39 37 35 34 32 31 30 27
24 24 22 22 22 24 24 22 23 24 25 26 27 28 28 29 29 28 28 29 29 28 27 28 30 30 31 31 31 31 30 31 32 32 31 32 34 37 41 42 43 41 39 36 34 33 31 30 29
25 23 23 24 25 22 24 23 21 19 24 26 27 28 28 29 28 28 29 28 28 28 26 26 25 28 29 29 28 30 30 30 31 31 31 31 32 33 32 33 38 39 40 37 35 35 33 33 31
23 21 24 21 21 21 25 23 23 24 26 26 27 28 28 28 27 26 26 26 26 25 25 24 24 24 25 26 26 26 27 29 29 29 31 31 31 31 31 31 32 34 37 38 36 34 33 33 32
24 26 26 21 19 20 25 22 23 26 26 26 27 27 26 26 27 27 26 26 25 24 24 23 23 23 24 25 24 24 24 23 23 26 28 29 28 30 31 31 31 31 32 33 35 34 33 32 32
26 25 29 25 20 22 24 24 26 26 24 24 24 24 24 24 24 26 26 25 25 24 22 22 22 22 23 25 25 25 24 22 21 22 24 26 27 24 27 29 29 30 30 31 31 32 31 31 31
27 32 27 28 17 16 21 22 24 25 23 23 22 23 23 23 22 21 24 22 22 22 22 21 22 21 20 22 24 25 25 25 23 22 22 23 25 25 25 27 27 27 28 29 29 30 30 30 31
26 25 30 29 27 19 16 18 24 26 25 22 22 22 20 18 16 22 16 19 19 19 17 18 20 20 19 19 20 23 24 24 23 22 22 22 23 24 25 26 26 26 26 27 28 28 29 29 29
29 28 27 26 22 24 24 22 26 25 24 23 21 20 20 18 9 19 15 14 15 14 15 13 17 19 19 18 18 19 21 22 21 22 22 22 21 22 23 25 25 25 26 26 26 26 28 28 28

GFSSGP_sfc_dewp_021.txt.gz
Dewpoint
51 44 44 38 27 25 24 22 32 22 22 25 26 24 24 24 22 20 41 55 58 63 67 71 72 72 73 73 73 72 72 70 70 69 69 68 68 68 69 70 71 70 68 67 67 66 65 64 62
48 42 37 32 22 19 19 21 22 22 23 28 25 25 25 27 30 42 50 54 62 65 67 70 71 72 73 73 73 72 71 70 70 69 69 69 70 69 68 70 71 70 69 69 67 65 64 61 60
43 36 28 27 21 18 17 18 20 22 25 25 23 26 31 24 34 43 48 53 64 65 67 69 71 72 73 73 73 72 72 72 70 70 69 70 70 70 69 70 70 70 68 68 65 64 62 59 57
37 33 29 20 19 19 29 29 20 24 24 25 25 24 25 31 34 45 52 56 63 65 67 68 71 72 73 73 72 72 72 71 70 70 70 70 70 70 70 70 69 68 68 66 64 62 59 56 53
33 28 22 22 20 20 31 23 23 22 22 24 24 20 21 31 46 53 55 57 61 64 66 67 70 72 72 72 72 72 72 71 71 71 71 70 69 69 68 67 68 68 66 63 62 60 57 54 50
30 25 19 18 22 18 22 21 21 18 17 18 33 30 19 32 43 50 54 54 60 63 65 67 68 70 71 72 72 72 72 72 72 72 71 71 70 68 65 63 65 65 63 61 61 59 56 52 48
29 24 22 25 17 18 22 22 34 22 17 18 33 27 26 29 32 40 52 53 55 61 64 66 68 68 68 69 70 70 71 71 71 71 71 70 70 69 65 66 64 63 63 62 61 58 54 50 45
31 24 27 26 18 16 20 19 21 19 18 21 29 20 21 37 34 42 48 51 53 56 63 64 66 69 69 68 66 67 68 69 69 69 69 67 67 66 65 64 65 64 63 61 61 57 54 50 43
29 20 17 21 17 20 22 20 20 21 19 19 22 33 21 31 40 45 45 45 48 53 58 63 64 66 67 69 67 65 66 67 67 66 65 65 65 64 62 62 63 65 64 62 61 57 54 51 42
25 18 16 22 22 25 24 22 23 20 22 21 19 22 23 25 38 37 36 36 39 44 51 58 62 64 65 67 67 67 68 68 68 68 67 66 64 63 61 60 61 63 63 63 61 57 55 46 32
30 20 24 26 24 26 25 24 26 23 21 22 23 25 25 24 29 30 31 31 31 33 36 39 58 61 63 66 67 67 67 67 66 66 66 65 62 61 61 60 60 59 58 58 58 54 49 37 30
32 29 27 30 30 27 25 26 25 25 24 28 26 26 26 29 30 31 31 31 32 32 33 34 36 58 61 63 65 65 66 66 65 65 63 63 62 61 60 59 59 59 57 54 52 50 47 42 36
28 28 28 29 29 27 27 25 24 23 25 23 27 29 29 29 30 30 31 31 31 32 33 34 36 45 59 61 61 61 64 65 65 64 63 61 60 60 59 59 58 57 55 54 50 48 47 39 33
26 28 26 26 25 24 24 23 24 21 22 21 27 29 30 30 30 30 30 30 29 31 32 34 38 42 53 60 60 60 64 64 63 63 62 60 60 59 59 57 57 56 55 52 50 48 45 37 33
26 23 22 21 22 22 24 21 22 23 21 22 28 29 30 31 30 30 31 30 30 30 32 35 39 47 51 57 58 59 59 60 61 60 60 60 61 61 59 57 56 55 54 51 49 46 40 35 32
22 21 18 21 24 24 21 20 21 22 21 22 28 29 29 30 30 31 31 31 31 31 31 33 37 45 52 55 57 58 58 58 58 61 61 60 60 60 57 56 55 55 53 51 49 45 40 36 32
21 14 20 21 24 23 20 19 21 22 22 24 28 29 28 29 30 30 31 31 31 31 31 32 35 38 48 52 54 54 55 57 57 59 59 59 59 58 57 56 56 54 52 50 47 42 40 36 33
15 19 20 20 22 21 20 19 21 23 22 24 28 28 28 29 29 30 30 30 31 31 31 31 33 34 41 47 46 45 47 51 49 48 51 54 56 55 55 54 53 52 51 48 46 42 36 34 33
18 20 20 21 23 22 22 22 23 24 24 26 29 28 28 29 29 28 28 29 30 30 31 31 31 32 34 41 44 42 42 42 38 38 39 45 49 53 52 51 50 49 50 47 44 38 37 34 31
23 21 20 23 24 23 22 21 23 24 25 25 29 28 28 27 27 26 26 27 28 28 29 30 30 31 32 33 36 38 38 36 33 34 33 34 35 40 45 45 45 45 45 43 41 37 36 34 32
23 22 23 22 24 24 22 21 22 27 29 30 30 29 28 26 26 26 25 25 25 26 27 28 28 29 31 31 32 33 33 33 32 32 32 32 32 32 34 36 40 41 41 41 40 37 35 35 33
23 26 25 24 23 22 24 19 21 23 27 29 29 28 27 27 27 26 25 24 24 24 25 26 26 26 28 30 30 30 30 29 31 31 29 29 28 29 32 32 33 35 38 38 38 36 35 33 33
25 26 25 22 22 21 20 18 20 24 24 27 28 28 27 27 26 26 26 25 24 23 23 23 22 22 22 23 25 22 22 25 22 23 21 24 23 24 26 28 30 31 33 33 34 37 36 34 33
25 23 25 26 22 19 20 19 20 21 23 26 27 28 27 27 26 25 25 23 22 22 22 22 20 20 20 19 19 19 19 18 19 20 20 21 22 22 24 25 25 25 27 29 31 33 34 35 35
22 23 21 21 19 20 23 21 20 24 25 27 27 27 27 27 25 24 22 22 20 20 21 21 21 21 21 19 18 18 18 18 18 20 21 20 21 21 22 24 24 24 24 25 26 29 29 31 31
22 23 23 17 18 19 24 22 24 26 28 28 28 28 27 25 25 25 23 22 21 20 20 21 22 22 22 22 22 21 19 19 20 20 21 22 22 22 22 21 22 22 23 23 23 24 24 26 28
23 22 27 25 16 19 23 24 24 26 26 27 27 27 26 26 26 25 25 23 21 19 19 19 21 22 22 22 22 22 22 21 20 20 21 21 21 20 21 21 20 21 20 21 22 22 22 24 25
26 29 24 25 17 16 21 21 22 23 25 26 26 26 26 26 27 25 25 24 22 21 20 18 17 19 21 22 22 21 20 21 20 20 20 19 20 20 20 20 20 21 21 21 21 20 20 21 21
26 27 28 26 24 18 14 17 23 24 25 25 25 25 25 24 25 26 24 23 23 21 20 19 18 17 17 18 19 20 18 18 18 18 18 20 19 20 20 20 20 19 19 19 20 20 20 19 20
29 27 28 25 21 24 22 21 26 26 25 25 25 24 24 24 22 22 25 21 20 20 20 19 18 18 18 17 16 17 16 16 16 16 18 20 19 20 20 20 19 18 18 18 18 17 17 17 17

GFSSGP_sfc_dewp_024.txt.gz
Dewpoint
49 44 41 34 24 25 23 24 30 21 26 25 25 24 31 30 21 20 37 52 58 63 65 71 72 72 73 73 73 72 72 70 70 69 68 68 68 68 69 70 71 70 68 67 66 66 65 63 62
45 41 34 28 21 18 18 24 21 23 23 32 25 24 26 25 28 38 48 53 60 64 67 70 71 72 73 73 73 72 71 70 70 69 68 68 69 68 69 71 70 69 69 69 67 65 63 61 60
42 34 27 23 20 16 17 23 31 22 25 24 35 29 36 23 30 45 49 54 63 64 67 69 71 72 73 72 73 72 72 71 70 69 69 69 70 70 69 70 70 69 68 68 66 64 61 59 56
36 30 27 16 23 22 27 30 20 27 24 25 27 32 24 33 32 45 54 57 61 63 66 68 71 72 73 72 73 72 71 71 70 70 69 70 70 70 70 70 70 68 68 67 65 63 59 57 53
31 26 21 21 22 20 25 29 24 21 33 24 27 23 24 27 48 52 53 57 59 63 65 67 70 72 72 72 72 72 72 71 71 70 70 71 70 70 70 69 68 67 66 64 64 61 58 55 51
29 24 18 17 23 18 27 22 22 17 17 23 33 29 21 31 44 48 54 52 58 62 64 66 67 70 71 72 72 72 72 72 71 71 71 71 70 69 67 66 66 66 66 61 60 60 57 53 49
27 21 20 23 22 21 21 21 32 32 30 28 32 30 28 37 31 39 52 54 55 60 63 64 66 67 67 69 70 71 71 71 71 71 70 70 70 69 66 66 66 63 64 61 60 59 56 52 47
29 23 25 25 17 16 23 19 20 28 18 21 28 23 30 30 36 41 45 48 51 55 60 62 64 68 69 68 66 67 69 69 69 69 68 67 67 67 65 64 65 64 63 61 59 58 55 52 45
26 17 15 23 16 20 22 21 21 22 28 21 20 35 22 26 38 39 39 38 40 45 53 58 62 66 67 67 67 64 66 67 67 66 65 65 65 66 63 62 64 65 64 62 61 58 55 52 46
22 13 11 20 30 31 23 25 23 23 22 29 21 25 25 28 29 29 30 31 31 32 37 40 54 62 66 67 67 67 68 67 66 66 67 66 66 64 63 60 61 63 63 63 62 58 55 45 29
30 15 21 25 24 26 25 24 25 32 21 22 24 25 26 30 30 31 31 31 31 32 33 34 36 44 63 65 66 67 67 67 67 67 66 65 64 62 62 61 61 61 59 59 57 53 49 40 31
31 28 26 29 29 28 25 26 25 25 24 27 27 28 29 29 29 30 30 30 30 31 32 34 36 38 53 64 65 66 66 66 65 65 64 64 63 62 61 60 60 60 59 57 55 52 48 43 36
32 27 28 29 29 28 27 25 24 24 24 27 29 29 29 29 30 30 30 30 30 31 32 35 37 41 44 59 63 64 64 65 65 65 64 63 62 61 60 60 59 59 57 56 54 51 48 44 35
25 27 25 25 25 25 24 23 25 22 21 26 29 29 30 30 30 30 30 30 30 31 32 35 38 44 49 56 60 61 63 64 63 63 63 62 62 59 59 58 56 58 57 55 53 51 48 44 35
26 22 22 20 22 20 24 20 21 22 22 26 28 29 29 30 30 30 31 30 31 31 32 34 39 46 53 57 59 59 62 62 62 61 61 61 61 59 59 58 57 57 56 54 51 49 45 41 34
22 20 19 19 24 23 21 19 21 22 21 25 28 28 28 29 30 30 30 31 31 31 32 33 36 42 52 56 57 58 58 59 59 60 60 60 60 60 59 58 56 56 54 53 51 48 45 42 37
20 20 17 19 24 22 19 19 22 22 22 26 28 28 28 28 28 29 29 30 30 31 31 32 34 36 45 48 50 51 48 46 46 48 51 55 55 57 57 55 55 54 53 51 49 46 44 43 40
19 18 18 19 21 21 19 19 20 22 22 25 28 27 27 27 27 28 28 29 30 30 31 31 33 33 38 45 43 41 38 37 37 37 38 41 44 49 52 52 51 52 51 49 48 46 42 38 36
18 19 19 20 23 23 22 22 23 24 24 27 27 27 27 27 27 26 27 27 28 29 29 30 31 32 34 39 41 36 33 34 34 33 33 33 35 39 43 44 44 46 46 46 44 42 40 39 33
21 20 19 21 24 23 23 22 23 24 26 26 28 27 27 25 25 25 25 25 26 27 28 28 30 31 32 33 34 35 34 32 32 31 28 29 32 33 33 36 39 40 41 40 40 38 38 36 33
22 21 21 19 23 24 25 22 23 27 29 29 28 27 26 25 24 24 23 24 24 24 25 26 28 30 31 32 32 32 32 30 27 25 22 23 24 28 32 32 33 34 35 36 38 37 36 36 35
19 24 23 23 24 23 24 19 21 24 27 28 27 26 26 26 25 24 23 22 22 22 22 23 23 24 26 26 25 23 22 20 25 23 23 21 22 23 25 25 26 29 31 31 33 36 35 34 33
24 27 26 25 23 21 20 19 20 24 24 27 28 27 26 26 25 24 22 22 21 21 21 19 19 19 20 21 19 18 19 21 22 21 18 20 20 22 23 24 23 24 24 26 28 31 33 34 33
25 24 25 25 22 19 20 19 20 21 23 26 28 27 27 26 25 24 23 21 19 19 19 19 17 17 17 17 16 16 16 16 16 18 18 20 21 20 21 22 23 23 23 23 25 25 27 28 30
22 22 21 20 19 20 23 20 20 23 25 26 27 27 27 26 24 23 20 18 18 18 19 18 18 18 18 16 17 17 17 17 17 19 19 19 20 21 20 21 21 21 22 22 22 22 23 23 24
22 23 23 17 18 20 24 22 23 26 28 28 28 27 27 26 24 23 21 19 18 19 19 20 20 20 21 20 19 19 19 19 20 19 19 20 20 20 20 19 19 19 19 19 20 21 20 20 22
22 21 25 23 14 18 23 24 24 26 27 27 27 27 26 25 25 24 23 21 18 18 19 20 21 21 21 21 21 20 19 18 18 19 19 19 20 18 19 19 18 19 19 19 19 20 19 20 20
25 26 23 24 16 17 21 22 23 23 25 27 27 26 26 26 26 25 25 23 21 18 18 18 20 20 21 20 19 19 19 19 18 18 18 17 18 19 19 19 19 18 18 18 19 18 19 19 18
27 26 27 25 25 21 15 20 22 24 25 26 27 27 26 26 26 26 25 24 22 20 18 16 16 18 18 19 19 17 17 17 16 16 17 17 18 19 19 19 19 18 18 18 17 17 16 17 17
28 27 27 24 21 22 23 23 26 26 26 27 27 27 26 26 26 26 26 24 22 21 19 18 17 16 16 16 17 17 16 16 16 16 17 18 18 19 19 19 18 18 17 17 17 16 16 17 15

GFSSGP_sfc_dewp_027.txt.gz
Dewpoint
49 43 42 37 29 30 25 28 24 26 26 29 28 27 26 27 22 25 39 51 59 63 66 71 72 73 73 73 73 72 72 71 70 70 69 69 68 69 70 71 71 69 68 67 66 66 64 63 62
44 39 36 30 25 21 22 23 27 27 27 29 28 27 25 25 29 38 47 53 59 64 66 71 71 73 73 73 73 72 72 71 70 69 69 69 68 69 71 70 70 69 69 68 66 65 62 61 59
41 32 32 27 23 19 21 23 24 26 27 28 26 29 27 29 32 41 49 55 63 64 67 70 71 73 73 73 73 72 72 71 70 69 69 70 70 69 69 70 70 69 68 68 66 64 61 58 56
37 32 29 19 21 23 23 22 23 26 26 27 28 24 25 33 35 44 53 61 63 64 68 69 71 73 73 72 72 72 71 70 70 69 69 70 70 70 70 70 70 68 67 66 65 63 60 57 54
32 29 24 24 27 25 20 25 26 24 25 23 26 26 25 29 43 51 55 59 61 64 66 68 70 72 73 73 72 72 72 71 71 70 70 70 70 70 70 69 68 67 66 62 63 62 59 55 52
30 27 20 20 24 23 23 25 23 20 21 23 23 24 29 32 37 47 55 55 61 63 66 67 67 69 71 72 71 71 72 72 71 71 71 71 70 69 69 68 66 66 65 63 60 60 58 54 51
28 25 21 20 21 23 24 23 20 20 22 22 26 23 28 28 38 48 52 54 56 62 65 66 67 68 66 69 69 70 70 70 70 70 70 70 70 69 67 66 66 64 64 62 61 59 57 53 49
28 26 24 23 20 22 24 22 23 23 22 22 27 22 25 26 37 43 45 38 42 43 53 62 65 67 69 70 66 67 68 69 69 69 68 67 67 67 65 64 65 64 63 61 61 59 56 53 47
29 16 18 21 20 21 24 23 24 25 22 24 24 24 26 30 32 33 34 33 35 35 37 39 47 64 66 68 68 65 65 67 67 67 65 65 68 68 64 63 64 65 64 62 61 59 56 51 43
22 15 14 21 20 22 25 25 26 24 24 24 25 27 30 31 31 31 31 31 32 33 34 36 39 41 56 66 67 68 69 68 69 68 67 67 67 66 64 61 62 63 63 63 61 59 54 45 31
30 16 19 25 25 27 26 26 27 25 25 26 29 26 29 30 30 30 30 30 31 32 34 36 38 41 42 62 67 67 68 68 69 68 68 66 65 64 63 62 62 63 60 61 59 55 52 45 36
26 29 26 32 30 28 27 27 27 27 28 27 29 29 29 29 29 30 30 30 31 33 35 37 39 42 46 52 65 66 67 67 66 66 66 65 64 63 63 62 62 61 61 59 57 55 52 47 39
31 29 28 30 28 29 29 27 26 26 26 29 30 30 29 29 30 30 31 32 33 34 35 37 39 44 48 51 63 65 65 66 66 66 65 64 63 63 62 62 61 61 59 58 56 54 51 50 42
27 28 26 25 25 26 25 24 24 23 27 29 29 29 29 29 30 30 31 31 32 34 35 36 40 47 52 53 61 63 64 64 63 63 63 63 63 62 61 60 60 59 60 59 56 53 51 49 44
27 24 22 22 23 22 25 24 22 22 25 28 28 28 28 29 29 29 30 31 32 33 34 36 41 47 57 59 61 62 61 61 60 60 59 60 61 61 60 60 59 58 58 57 55 52 50 46 41
24 22 21 23 25 25 24 22 24 22 22 26 27 27 27 28 28 29 30 30 31 32 33 36 39 47 53 55 54 51 49 48 50 51 52 53 55 57 57 57 56 56 55 54 52 50 48 46 43
21 21 20 20 25 24 23 23 24 23 23 26 27 27 27 27 27 28 29 29 30 31 32 34 37 42 47 45 43 41 40 39 40 41 43 45 48 51 52 52 53 53 52 51 50 48 46 46 45
21 19 19 19 22 23 22 20 22 23 24 26 27 27 26 26 26 27 27 28 29 30 31 33 35 37 43 41 39 37 36 35 34 34 35 37 39 44 46 45 46 49 48 48 49 47 45 43 39
21 19 18 20 23 23 22 21 22 24 25 27 27 26 26 25 26 25 26 26 28 28 30 31 33 34 37 39 38 35 33 32 30 30 31 33 34 35 38 40 41 42 42 41 41 43 41 40 37
20 20 19 21 23 23 22 23 24 25 26 27 27 26 25 25 24 24 24 25 25 26 27 29 31 32 34 34 35 34 30 27 24 24 24 25 29 31 32 34 34 35 36 38 38 38 39 39 35
22 20 20 19 24 25 23 24 25 27 29 28 27 27 25 24 23 23 23 22 23 23 23 24 26 29 31 32 31 30 28 25 21 21 20 22 22 24 27 26 28 30 31 33 34 37 37 36 37
19 23 22 22 23 22 24 22 23 25 27 28 27 25 25 24 24 23 21 21 21 20 20 20 21 22 22 24 23 22 20 17 20 19 20 20 22 22 23 24 23 25 25 24 28 29 32 35 33
25 26 24 25 25 23 22 21 22 25 23 27 27 26 26 25 23 22 21 20 19 19 19 18 19 18 18 19 19 18 18 19 19 19 18 18 19 21 21 21 21 22 22 22 22 22 22 26 26
26 25 25 25 22 19 22 21 20 20 23 26 28 26 26 25 24 23 22 19 18 18 18 18 16 16 17 16 16 15 16 15 17 17 18 18 18 18 19 20 20 19 19 20 20 21 21 21 20
23 22 21 21 20 20 22 19 21 22 25 26 28 27 26 26 24 22 19 17 16 16 17 17 16 15 16 16 16 16 16 17 16 17 17 17 17 17 18 18 18 18 18 18 18 18 19 19 18
23 23 23 18 18 21 23 21 23 26 28 28 28 27 27 26 24 22 20 18 17 18 18 18 17 17 18 18 18 19 18 17 17 18 18 18 18 18 18 17 17 17 17 17 16 18 18 19 18
22 22 26 23 15 20 23 24 26 27 27 27 28 27 26 25 24 23 22 19 18 18 19 19 19 20 20 19 19 18 18 17 17 17 17 18 18 16 18 17 16 16 16 16 16 17 17 18 17
24 26 22 24 15 15 21 22 23 24 25 27 27 27 26 26 25 24 23 21 19 19 20 20 20 19 19 19 19 18 17 17 17 16 16 16 17 17 17 16 15 15 15 15 15 16 16 16 16
27 24 26 24 24 19 17 20 24 24 25 26 27 27 27 26 25 25 25 24 21 19 19 19 20 20 19 19 18 18 17 16 16 16 16 16 17 17 16 16 15 15 14 14 15 15 15 15 16
28 25 26 24 21 22 23 23 26 26 26 27 27 27 27 27 26 26 26 25 22 20 18 16 18 19 19 19 17 16 16 16 15 15 16 17 16 17 16 14 13 12 12 13 13 13 15 16 15

GFSSGP_sfc_dewp_030.txt.gz
Dewpoint
48 42 42 39 28 26 22 22 23 22 22 26 26 25 22 24 21 22 46 52 58 61 65 70 72 73 73 73 72 72 72 71 70 70 69 69 69 69 70 70 70 69 68 67 66 64 63 62 61
41 38 38 33 21 14 17 22 22 24 25 26 26 24 23 23 30 38 46 52 58 61 65 68 71 73 73 73 72 72 72 70 69 69 68 68 69 70 71 70 70 69 68 67 66 64 62 59 58
39 31 33 29 24 13 16 21 21 24 25 24 24 26 24 27 35 40 52 54 60 62 65 68 71 73 73 73 72 72 72 71 70 69 69 69 68 69 70 70 70 69 67 66 66 64 61 58 57
37 33 28 18 18 19 17 19 23 24 25 26 24 21 24 35 39 47 55 59 60 63 65 69 71 73 73 73 72 71 71 70 70 69 69 70 70 69 70 70 69 68 65 65 64 63 60 56 55
32 31 24 21 19 19 20 23 24 23 20 21 23 18 24 33 45 51 54 57 58 62 65 67 70 72 72 72 71 72 71 71 70 70 69 70 70 70 70 69 68 66 64 62 62 61 59 54 55
29 29 20 17 17 20 21 22 21 17 17 21 18 17 25 35 38 49 54 56 60 63 66 66 67 70 71 72 71 71 71 72 71 71 70 70 70 69 69 67 66 65 64 62 62 60 58 52 53
28 27 22 21 18 20 21 22 18 17 17 19 22 17 25 27 37 49 51 53 54 60 65 66 67 68 67 69 70 70 70 70 70 70 70 70 69 69 67 66 65 65 64 62 62 60 57 51 52
28 27 23 21 19 20 21 20 21 20 19 22 23 17 22 28 34 42 39 38 38 41 46 50 63 67 68 69 66 66 68 69 69 69 68 68 68 68 65 64 65 65 63 62 62 59 56 51 50
26 16 18 21 21 20 23 20 21 24 21 23 23 24 29 31 33 35 36 34 36 36 38 41 45 55 62 66 66 65 65 66 67 67 65 65 67 67 65 63 64 65 64 63 61 59 56 48 41
22 18 15 21 20 21 23 22 23 21 22 20 24 27 29 30 31 31 32 32 33 35 36 38 41 44 53 63 67 68 68 68 68 67 66 66 65 65 64 61 62 63 63 64 61 59 54 49 37
27 16 16 21 22 25 25 25 25 23 22 23 24 26 29 29 30 30 30 32 33 35 38 40 43 44 45 58 66 67 68 69 67 67 66 66 67 66 65 64 63 63 61 62 60 57 56 53 44
22 26 24 29 29 27 26 26 25 26 25 27 28 29 29 28 29 30 31 32 35 37 40 43 45 47 49 47 64 66 67 68 68 67 66 66 67 66 65 64 63 63 62 61 59 57 55 53 47
28 28 28 29 29 28 28 27 24 25 28 28 29 29 28 28 29 31 32 34 37 39 42 45 48 51 52 50 63 66 66 66 66 66 65 65 66 66 66 64 63 62 61 60 59 56 53 53 50
26 26 25 25 25 26 26 24 26 24 28 28 28 27 28 28 29 30 32 34 36 40 43 47 50 52 51 52 63 65 64 63 62 61 62 62 63 63 63 62 63 61 60 59 57 55 53 50 47
26 23 23 23 22 22 25 23 22 24 27 27 27 27 28 27 28 30 31 33 35 39 43 44 46 56 58 60 58 56 56 56 55 56 57 58 60 61 60 59 58 58 58 56 55 53 51 49 48
23 23 23 23 24 24 25 21 23 24 25 26 27 26 27 27 27 29 31 32 34 38 41 42 47 49 48 48 48 47 47 47 48 49 50 53 55 56 56 55 55 55 54 54 52 51 50 49 48
23 21 22 23 23 23 24 23 24 23 23 25 26 26 26 26 26 28 30 31 34 37 39 41 44 45 45 44 42 41 40 41 41 42 43 44 47 48 49 51 52 52 51 51 51 50 49 49 47
23 22 22 22 22 23 23 22 22 23 23 25 27 27 26 25 25 27 28 31 34 36 39 39 40 43 42 41 40 38 38 37 37 37 38 39 41 44 45 46 46 47 48 46 49 48 47 43 41
23 22 22 21 22 23 23 23 23 23 23 25 27 26 25 25 25 26 28 30 34 35 38 37 38 39 41 40 40 38 36 34 33 33 35 35 37 38 40 40 41 42 42 42 42 44 43 40 40
22 23 22 22 22 22 21 21 22 24 25 26 26 26 25 25 24 25 26 28 31 32 34 36 36 36 38 38 37 34 29 26 25 26 25 26 29 30 31 34 34 36 36 37 39 41 41 41 38
23 22 22 21 23 24 24 23 25 26 28 28 27 27 25 25 24 24 25 25 28 29 31 32 33 34 34 32 30 27 26 25 23 21 20 20 20 23 26 24 25 26 27 27 31 34 37 36 38
22 24 23 22 21 22 25 22 27 25 26 28 28 26 25 24 24 23 23 23 25 26 28 29 30 30 30 30 30 28 25 21 18 17 18 19 20 20 21 21 21 22 21 21 21 20 23 26 25
26 25 24 24 24 25 24 23 25 24 23 26 27 26 25 25 24 23 22 22 20 24 25 25 25 24 24 23 23 21 19 18 17 17 16 16 17 20 20 20 19 19 19 21 20 20 19 18 18
28 27 25 26 26 24 26 24 22 22 23 25 27 26 25 24 24 22 21 21 19 21 22 22 20 19 20 20 19 18 18 16 16 16 15 15 15 17 18 18 19 18 17 18 19 20 20 19 16
25 25 25 24 24 24 23 23 22 24 24 26 28 26 25 25 23 21 19 18 17 18 19 18 16 15 15 15 15 16 16 15 15 14 14 15 15 15 16 16 16 16 16 16 17 19 19 18 17
25 26 27 26 23 23 24 22 23 26 27 28 28 27 26 25 24 22 19 17 16 17 16 14 13 13 13 15 16 16 15 13 14 15 15 15 15 16 16 15 15 15 15 14 14 17 18 18 18
24 24 27 25 24 27 23 24 26 27 27 27 28 28 26 26 25 23 20 16 15 16 16 15 14 14 15 15 15 16 15 14 14 15 16 16 17 15 16 15 14 14 14 15 14 17 17 18 18
25 27 25 25 27 25 21 22 22 26 25 27 28 28 27 26 26 24 20 18 17 16 17 16 14 14 16 16 15 15 15 15 15 15 16 16 16 16 15 14 13 13 13 13 14 16 17 16 17
25 24 25 24 26 26 23 21 26 27 26 26 27 28 28 27 26 24 22 20 18 18 18 17 16 16 17 17 16 17 17 15 15 15 16 16 15 14 14 13 13 12 12 13 13 14 14 16 17
27 26 25 25 26 24 25 24 25 26 26 28 27 28 29 28 27 25 24 23 20 19 19 18 17 16 17 17 17 16 16 16 16 15 15 17 15 14 13 11 11 10 10 11 11 12 14 14 13

GFSSGP_sfc_dewp_033.txt.gz
Dewpoint
51 39 39 40 30 21 18 19 19 18 19 24 24 21 18 21 22 26 47 55 56 60 66 70 72 73 73 73 72 72 72 71 70 70 70 70 69 69 71 70 69 68 67 67 65 64 62 60 61
39 35 38 32 22 12 14 17 19 20 22 24 23 22 18 22 29 39 45 52 57 59 64 68 71 73 73 73 72 72 71 70 69 69 68 68 70 71 70 70 70 68 68 67 66 64 61 59 58
41 32 33 25 19 12 14 18 20 21 23 22 20 24 22 26 34 39 52 54 58 60 64 68 71 72 72 72 72 71 71 70 69 68 68 68 69 70 70 70 69 68 66 66 65 63 60 57 57
36 33 26 19 16 17 14 16 21 20 22 24 22 19 27 40 42 48 55 55 56 60 63 70 72 72 72 72 72 71 71 70 70 69 69 69 69 69 69 69 68 65 65 64 63 62 58 56 57
31 29 21 18 17 14 18 20 22 20 17 18 20 18 28 37 47 50 51 54 55 60 63 68 71 72 71 71 71 71 71 70 70 69 69 70 69 70 70 68 67 65 64 64 62 61 57 55 56
28 27 16 15 14 16 19 21 19 15 14 15 15 15 29 37 41 51 52 57 58 62 65 66 68 69 71 71 71 70 71 71 70 70 69 69 69 69 68 67 66 65 64 64 62 60 56 53 54
27 22 17 15 15 16 18 21 16 14 15 19 19 16 28 30 38 48 49 49 53 61 64 65 66 68 67 68 70 70 70 70 70 70 69 69 69 69 66 67 66 65 64 63 61 59 56 52 53
25 20 18 15 15 18 21 19 20 19 19 22 22 18 23 30 34 44 41 41 43 47 51 55 64 66 67 68 66 66 68 69 69 69 68 68 68 67 65 64 66 65 63 63 61 59 56 51 48
26 15 14 15 16 18 21 18 21 23 20 21 24 25 29 30 33 37 39 37 38 38 40 43 48 56 64 65 66 65 64 66 66 67 65 65 66 67 64 63 65 66 64 62 61 59 55 46 43
23 17 11 18 17 19 21 20 21 20 19 20 25 28 29 29 31 32 33 33 34 36 38 40 43 46 51 61 65 67 66 67 66 66 66 66 66 65 65 62 63 64 64 63 61 58 54 52 44
23 15 15 20 21 21 22 22 22 20 20 20 22 27 28 29 30 30 31 33 35 37 39 42 44 46 47 55 64 65 67 68 66 66 66 66 66 65 65 64 63 63 61 62 60 58 58 55 50
21 21 19 26 28 26 25 25 23 23 25 27 27 28 28 28 30 31 32 34 36 39 42 45 47 48 49 48 62 65 67 67 66 66 66 66 67 67 66 64 64 65 63 62 60 58 56 54 50
24 24 26 28 29 27 28 26 24 24 28 28 28 29 28 29 30 32 32 35 38 41 44 48 51 52 52 50 60 66 66 65 64 64 64 65 65 65 65 65 65 63 63 62 60 57 55 54 51
26 26 24 25 25 25 26 23 25 23 28 27 27 27 28 28 29 31 32 34 38 43 47 49 51 56 49 53 61 61 60 59 58 58 60 62 63 62 62 62 61 61 61 59 57 56 54 52 50
26 22 22 23 24 23 26 24 24 24 27 26 26 27 27 27 28 30 32 34 38 43 47 47 51 53 55 54 53 53 53 53 53 53 55 57 59 60 58 57 57 57 57 56 55 54 53 52 50
22 23 22 25 24 25 25 22 25 25 25 25 25 26 27 27 27 29 31 33 38 44 44 46 49 49 48 47 46 46 46 47 48 50 51 52 54 55 56 55 54 54 54 53 52 51 51 51 50
24 20 23 23 24 24 24 23 25 25 24 25 25 26 27 26 26 28 31 33 38 44 43 45 46 46 44 43 43 42 43 43 45 45 46 47 48 48 49 50 50 50 50 51 52 50 50 49 46
22 23 23 23 23 24 23 23 24 23 23 24 25 27 27 26 25 28 30 34 39 43 43 43 45 44 42 41 41 40 40 40 41 41 41 42 44 46 47 47 47 48 47 46 49 48 46 43 42
23 23 22 23 23 23 23 23 22 24 23 23 24 26 27 26 26 28 31 35 39 43 41 43 43 43 43 42 41 40 39 37 35 35 36 36 38 40 40 40 41 41 42 42 42 44 43 42 42
24 23 23 25 23 23 23 23 23 23 24 24 24 26 27 26 25 27 29 34 37 41 40 39 40 41 41 41 39 36 33 32 29 29 27 28 30 30 30 33 34 34 33 34 36 39 41 41 39
24 24 24 23 24 24 23 23 25 25 25 25 26 27 27 26 25 26 28 32 36 38 40 39 39 39 39 36 33 31 30 29 26 24 22 22 21 24 29 26 27 26 25 25 27 28 30 31 35
24 25 24 24 23 24 25 22 26 27 28 28 29 28 27 26 25 25 26 30 34 35 36 36 37 36 35 34 33 32 29 25 22 20 21 20 21 21 23 24 24 26 25 24 25 22 24 27 24
25 26 26 27 27 27 27 24 26 28 26 27 28 29 27 26 25 25 26 27 27 32 34 33 32 30 30 31 30 28 24 23 20 19 18 18 20 21 21 22 23 23 23 25 24 24 23 21 21
29 28 26 27 28 26 28 27 25 25 25 27 28 28 27 26 25 25 25 24 25 28 29 30 28 26 25 25 24 24 23 20 20 18 17 16 17 18 20 20 23 20 19 21 22 24 23 23 20
28 28 28 26 26 26 24 27 26 25 25 26 28 27 27 26 25 23 23 22 23 25 25 24 22 20 20 20 21 21 19 19 18 16 16 17 16 17 17 17 18 17 17 17 19 22 22 21 20
27 28 29 27 26 25 24 22 23 27 27 28 28 27 26 25 25 24 23 22 21 22 22 19 18 17 17 18 18 18 17 14 15 16 17 17 16 17 18 16 16 16 15 14 16 21 21 23 22
27 27 30 28 29 27 23 24 25 28 27 27 28 27 26 25 25 24 22 20 19 19 18 17 16 15 16 16 16 16 15 15 15 17 18 18 19 16 17 17 16 15 16 17 17 22 22 24 23
27 28 26 26 30 26 21 23 23 28 26 26 28 28 26 26 25 24 21 19 19 18 18 16 14 14 16 16 16 15 15 16 16 17 18 18 17 17 17 16 16 15 16 17 18 21 22 20 22
26 25 26 26 27 27 24 22 25 26 26 26 27 29 28 27 26 25 22 20 19 20 20 16 15 15 17 17 16 19 19 16 16 19 19 19 19 17 17 17 16 16 14 16 16 17 17 18 19
27 26 26 26 26 26 26 25 25 27 27 29 27 29 29 28 27 26 24 21 19 20 20 19 17 18 19 17 16 20 17 18 18 17 18 21 18 18 16 15 14 13 12 13 13 13 16 16 15

GFSSGP_sfc_dewp_036.txt.gz
Dewpoint
52 42 40 45 39 32 23 23 19 21 22 23 24 20 24 27 31 38 52 56 57 66 70 71 72 73 73 73 72 72 72 72 71 71 71 70 70 71 70 69 69 68 67 67 65 63 61 60 61
40 38 43 41 31 21 18 19 22 23 23 23 23 23 24 30 39 46 50 55 58 65 68 69 72 72 73 72 72 72 72 71 69 69 69 70 71 70 70 70 69 68 66 65 66 63 60 59 59
44 36 39 36 26 19 20 20 20 22 23 24 20 22 28 36 43 49 52 55 58 62 67 69 71 72 72 72 72 72 72 71 70 69 68 69 71 70 70 69 67 66 65 64 64 61 59 59 59
37 39 34 26 23 18 18 19 19 21 22 25 23 25 36 45 46 51 54 55 59 61 69 70 71 71 72 72 72 72 71 71 70 69 69 69 69 70 70 68 66 65 65 63 63 59 57 57 59
36 36 32 23 20 18 19 21 22 20 17 20 20 28 33 44 49 50 53 54 59 61 69 70 71 71 71 71 71 71 71 70 70 70 70 69 69 70 69 68 66 65 65 63 61 58 56 56 57
36 33 26 20 17 18 20 21 20 17 14 14 16 28 34 40 49 51 55 58 61 64 66 69 69 69 70 71 71 71 71 70 70 70 70 69 69 69 68 67 66 65 64 63 61 58 55 54 53
36 32 26 20 18 17 20 21 17 14 14 20 20 24 31 34 42 48 48 51 53 56 62 66 68 68 66 67 69 69 70 69 69 69 69 69 69 69 68 67 66 65 64 63 61 58 54 50 50
33 26 19 14 18 20 22 19 20 20 21 22 23 24 27 31 37 43 42 42 44 46 48 51 59 65 66 68 65 65 67 68 68 68 68 67 67 66 66 65 66 65 64 63 61 59 53 47 46
32 24 20 18 20 22 22 19 23 24 21 23 26 28 29 31 35 41 39 39 40 40 40 44 47 51 63 65 66 64 64 65 66 66 65 65 67 65 63 64 65 65 64 63 61 58 52 48 48
28 27 22 20 19 21 21 20 22 21 20 23 26 28 29 31 33 35 34 35 35 37 39 42 44 46 48 60 64 66 65 68 68 67 66 67 66 67 64 62 63 64 64 63 61 58 56 54 43
28 23 18 21 27 26 23 23 23 21 21 24 25 28 29 30 31 32 32 35 36 38 42 45 46 46 47 50 63 64 66 66 65 66 66 65 66 65 64 62 62 62 61 61 59 58 57 52 48
26 23 21 30 31 28 26 26 25 23 28 28 28 29 29 30 31 32 33 35 38 41 45 48 50 51 50 49 59 64 65 65 65 64 65 66 65 64 64 63 64 63 62 61 59 56 55 54 50
27 25 27 29 31 28 29 28 25 24 28 28 29 30 29 30 32 32 34 37 41 43 48 49 52 54 53 50 62 64 62 60 60 61 62 64 64 63 64 63 63 62 61 60 59 56 54 51 51
29 29 26 28 28 28 28 25 25 25 27 27 28 28 28 29 30 33 33 36 40 46 48 49 52 56 57 57 57 57 57 57 56 57 58 60 61 60 59 58 58 58 58 57 55 54 53 51 50
29 25 25 24 25 26 27 25 24 26 27 26 26 27 28 28 29 31 32 35 40 47 47 49 51 53 52 52 52 53 53 53 53 54 54 55 57 58 56 55 55 55 55 54 54 53 53 51 50
25 24 23 26 26 27 26 24 26 27 26 26 26 26 27 27 28 30 32 35 41 46 46 48 48 47 47 47 47 47 48 47 49 49 50 50 53 53 53 52 52 53 53 53 51 51 51 50 48
25 21 23 25 26 26 25 26 26 26 25 25 25 26 27 27 27 30 32 35 42 44 46 47 46 45 45 44 44 44 45 45 45 46 46 47 48 49 49 50 50 50 50 51 51 49 47 44 43
24 24 24 24 24 25 24 24 25 25 25 25 25 26 27 27 26 29 32 36 43 44 45 45 45 43 43 43 42 41 41 40 40 41 41 42 44 45 46 45 44 45 44 43 45 44 44 41 41
24 23 23 24 24 24 25 25 24 24 24 24 25 26 27 27 27 29 32 37 43 42 43 44 43 43 43 43 41 40 37 35 34 35 35 33 37 39 39 40 39 37 37 37 37 43 41 37 35
25 24 24 25 24 24 24 24 25 25 24 23 24 26 28 26 26 28 32 37 42 41 41 42 43 43 43 43 39 37 34 31 28 29 28 28 29 31 29 30 29 29 28 27 28 30 35 37 29
26 25 24 25 26 24 23 23 24 26 26 25 25 25 28 26 25 27 31 35 39 41 40 39 40 41 39 35 32 30 30 29 26 25 24 23 24 26 29 27 27 26 26 26 26 25 27 26 29
24 27 26 26 25 23 24 23 26 27 27 26 26 27 28 26 26 27 30 34 37 38 39 39 39 37 35 33 32 31 29 25 24 23 23 24 24 24 26 26 26 26 27 25 24 24 23 25 23
27 29 27 28 28 29 27 25 26 27 26 27 28 29 28 27 26 26 28 33 34 35 36 35 34 33 34 35 32 27 23 23 23 22 21 22 23 24 24 24 23 24 26 25 24 24 23 23 21
30 29 28 28 28 26 28 27 26 26 27 28 29 29 28 27 26 26 28 28 31 32 33 32 30 28 28 27 26 24 22 21 21 21 21 21 21 22 22 22 23 22 22 23 24 23 22 22 21
29 29 27 25 24 25 25 28 27 27 25 27 29 29 28 27 25 25 25 26 27 29 29 29 26 24 24 24 24 24 21 20 20 19 20 20 20 20 19 20 20 19 19 20 23 22 21 21 20
28 29 29 23 25 26 24 23 26 29 28 28 29 29 27 26 25 25 24 24 25 27 25 22 22 21 21 22 22 22 21 19 19 20 21 21 20 20 19 18 18 18 17 18 21 21 20 21 21
28 27 30 27 22 23 26 25 26 28 27 28 28 27 26 26 25 24 24 23 24 24 22 21 20 19 20 20 20 19 18 18 19 20 21 21 20 19 19 18 17 18 18 18 20 21 20 20 20
29 30 26 27 19 21 25 24 24 27 26 27 28 27 26 26 25 24 23 22 22 21 20 19 18 18 20 19 19 18 18 19 20 20 20 19 18 19 18 18 17 17 17 17 19 20 19 18 19
27 26 27 27 28 25 23 24 25 27 28 26 28 27 26 26 25 25 22 21 20 21 20 18 17 18 19 19 19 20 20 19 19 20 20 19 19 19 18 18 18 17 16 16 15 15 16 16 17
28 27 27 26 25 26 26 24 25 28 29 27 28 28 27 27 26 25 22 20 19 20 19 17 17 19 20 19 20 20 19 19 19 19 19 20 18 19 17 17 16 15 14 15 14 14 15 15 15

GFSSGP_sfc_dewp_042.txt.gz
Dewpoint
51 41 39 40 27 23 19 19 20 22 19 24 34 36 35 38 37 34 52 67 69 70 70 71 72 73 72 73 73 72 72 72 70 70 71 70 70 70 68 67 65 64 65 64 63 62 62 62 63
49 41 39 34 19 16 16 20 21 22 23 31 29 30 37 42 47 50 53 67 69 70 71 70 71 72 72 73 72 72 71 71 69 70 71 70 70 69 67 66 64 64 64 63 61 61 60 60 61
43 36 31 26 20 16 17 20 20 22 24 23 25 36 39 41 49 50 53 67 69 70 71 70 71 72 72 72 72 72 71 70 69 70 70 70 70 68 67 66 64 62 61 60 59 58 58 58 60
33 35 30 16 15 18 19 20 20 21 23 25 33 35 44 48 48 53 56 68 68 69 70 69 71 72 72 72 72 71 71 70 69 69 70 69 69 68 67 66 64 63 61 58 56 55 56 56 58
34 31 24 16 15 20 19 20 21 20 20 21 30 33 44 49 55 58 60 65 67 68 69 69 70 71 71 72 72 72 71 70 70 70 69 69 69 68 67 65 65 64 63 60 54 53 53 53 55
30 26 20 17 13 20 20 20 18 16 16 28 31 33 36 45 53 54 56 59 67 68 69 69 68 69 70 70 71 71 70 70 70 70 69 69 69 68 67 65 65 64 63 60 55 51 49 50 52
27 23 20 24 14 20 19 18 13 13 19 20 30 32 36 43 49 52 50 48 50 54 62 68 68 67 68 68 68 69 69 69 69 69 69 69 68 68 68 67 65 64 63 60 56 52 49 49 50
28 21 16 20 14 15 20 19 20 19 20 24 28 28 32 34 46 44 41 40 41 44 47 49 61 67 67 67 64 67 68 68 68 68 67 66 66 67 66 65 66 64 63 59 57 53 50 49 49
24 16 16 20 16 19 21 19 23 22 22 27 28 28 30 38 41 38 38 38 39 41 42 44 47 50 63 67 65 64 66 66 65 65 64 64 65 64 64 64 65 65 63 60 57 55 51 50 52
25 19 18 21 21 20 19 19 21 20 22 25 27 29 31 37 38 37 36 35 37 40 43 44 45 46 49 59 67 67 67 66 66 66 65 66 64 64 64 62 63 64 62 62 60 57 53 48 40
23 17 17 24 28 24 21 21 22 19 20 24 24 28 31 34 36 35 35 35 37 43 46 49 50 50 47 49 62 65 67 66 65 66 65 66 65 64 63 62 62 60 58 57 55 54 51 47 45
13 21 24 29 29 26 22 24 22 21 21 28 26 29 31 32 33 34 35 37 42 45 47 49 51 52 51 49 59 63 64 63 62 63 65 65 64 63 62 62 62 62 60 56 55 53 51 50 47
22 24 26 29 27 27 28 26 24 24 28 29 29 30 31 31 32 34 36 40 44 47 46 49 51 52 54 53 61 61 59 60 60 60 63 64 64 63 63 61 61 60 60 57 54 53 52 50 50
27 27 26 28 27 27 25 24 26 25 28 28 29 30 30 31 31 34 37 40 44 47 46 49 51 53 55 58 57 57 56 57 58 58 60 61 61 60 59 58 57 57 56 55 54 53 51 51 51
27 19 21 23 27 26 26 23 24 25 28 27 28 29 30 31 32 33 35 38 46 47 48 49 50 51 52 53 53 54 54 55 54 55 56 57 57 57 56 56 55 55 55 54 53 51 50 47 46
22 22 21 23 25 26 22 20 24 27 26 27 27 28 28 29 32 32 34 39 46 46 47 47 49 48 48 50 50 50 50 50 51 52 53 54 54 54 53 53 53 53 52 51 48 45 41 41 42
24 21 21 22 26 25 23 22 25 27 26 26 27 27 27 27 30 31 34 41 45 46 46 46 47 46 47 47 47 46 46 46 47 49 50 49 49 49 48 47 46 47 46 44 39 37 38 39 41
21 21 21 22 24 24 23 23 24 27 26 26 26 26 27 27 28 30 33 42 45 45 45 45 45 45 45 43 42 41 40 39 38 41 43 43 43 42 41 40 40 41 42 39 34 30 31 35 40
23 23 22 23 25 24 23 23 23 24 25 25 25 26 27 27 28 30 34 43 44 44 44 44 43 44 43 43 41 39 37 35 34 35 37 36 37 37 35 33 32 34 36 35 34 31 25 27 31
24 23 23 24 25 23 23 23 25 26 25 25 25 25 26 27 27 30 35 42 43 43 44 44 43 43 44 43 39 35 31 28 28 30 29 30 30 29 27 28 28 27 25 24 25 28 27 25 25
26 24 24 24 25 24 24 23 23 25 26 25 26 25 26 27 27 30 35 42 42 43 43 44 44 43 42 36 31 27 26 26 26 25 26 26 27 28 28 26 26 25 24 23 22 23 22 21 22
25 27 26 25 25 22 26 20 24 25 25 26 26 25 25 27 27 29 33 40 42 42 43 44 44 41 35 33 30 29 28 26 24 24 25 25 25 26 27 26 25 25 25 22 22 21 21 20 15
27 28 26 26 25 26 26 23 24 26 26 26 27 28 25 27 27 29 32 37 42 41 42 43 41 35 33 32 30 28 25 23 23 24 22 23 24 25 25 24 23 23 22 22 20 20 19 20 19
29 28 29 30 27 24 25 24 23 25 26 27 28 29 26 27 27 28 32 38 41 39 40 40 37 34 33 31 29 25 22 22 21 21 21 22 22 23 23 23 23 23 22 21 21 21 19 20 19
28 25 22 24 23 22 27 25 24 27 29 28 28 29 28 27 27 29 34 37 39 38 37 37 36 34 33 29 26 23 22 19 18 19 19 20 20 20 20 21 21 21 21 21 21 20 19 18 17
28 25 24 19 21 22 25 24 26 29 30 30 29 29 28 26 27 29 32 35 37 36 35 35 34 32 30 26 24 22 20 19 18 18 19 19 18 19 19 19 19 19 19 19 20 21 21 20 20
26 26 28 26 16 21 26 26 28 29 27 28 28 29 26 26 27 28 32 34 35 35 34 31 29 28 28 25 23 21 19 18 18 20 20 20 20 17 18 18 18 19 20 20 20 21 20 20 20
27 29 26 27 18 18 24 25 25 27 27 27 27 29 27 26 26 27 29 31 32 33 32 28 28 26 26 24 22 20 19 19 20 20 19 19 19 18 18 18 18 19 20 19 19 19 20 18 19
27 27 28 28 27 22 19 22 27 27 27 27 27 28 28 26 25 26 26 28 30 30 28 27 24 23 24 23 22 21 21 20 20 19 19 18 19 18 17 18 18 19 19 19 18 17 18 16 17
30 28 28 26 23 26 25 24 26 29 28 28 28 28 29 27 26 26 25 25 27 27 26 25 23 23 23 22 20 21 20 20 20 19 18 19 18 19 18 18 18 17 18 18 15 16 16 16 15

GFSSGP_sfc_dewp_045.txt.gz
Dewpoint
53 42 40 35 21 22 18 19 20 21 24 31 37 31 31 41 34 27 53 61 67 69 70 70 72 72 72 72 72 72 72 71 70 71 70 70 69 67 66 64 65 65 64 63 62 61 61 64 65
50 39 37 30 17 17 17 23 20 21 30 35 30 35 41 44 48 51 55 67 69 69 70 70 71 72 72 72 72 72 71 71 71 70 70 70 68 67 65 63 62 61 61 60 60 60 60 63 63
41 34 27 22 18 16 18 20 20 25 32 24 33 38 42 43 51 50 55 68 69 69 70 70 70 72 72 72 72 71 71 71 70 70 69 69 67 67 65 64 62 60 58 57 57 58 60 61 63
34 32 25 16 15 19 19 20 21 25 23 29 36 38 46 50 48 54 60 68 68 69 69 69 71 72 72 72 71 71 70 69 70 69 69 69 68 67 65 65 63 61 57 55 55 56 58 58 60
33 29 19 18 16 19 19 20 21 20 20 25 30 37 45 51 57 59 65 67 67 68 69 69 70 71 72 72 71 71 71 70 69 69 69 69 68 67 65 65 64 62 58 54 52 54 56 56 58
27 25 18 16 20 20 22 20 19 18 21 30 35 39 42 47 56 56 63 65 66 68 68 69 68 69 70 70 71 71 71 71 70 70 69 69 68 67 66 65 64 62 59 55 51 51 53 53 54
25 23 19 16 14 20 19 20 15 14 19 22 33 33 40 48 53 53 52 54 58 63 67 67 68 68 67 68 69 69 70 70 70 70 70 69 68 68 66 66 64 62 60 58 55 52 52 51 52
25 20 15 20 16 16 19 19 15 18 20 26 30 31 41 41 50 45 44 45 47 50 56 61 67 67 67 66 64 66 67 68 68 68 67 66 66 67 66 65 65 62 60 58 56 53 52 51 52
21 15 15 14 15 17 20 19 22 23 23 27 28 31 30 44 43 41 41 40 42 43 44 47 54 58 66 67 65 63 65 65 65 65 64 63 65 65 64 63 65 64 61 59 56 53 51 49 50
22 16 18 20 18 20 20 19 21 20 23 24 27 30 38 41 39 41 41 41 40 42 43 45 45 48 50 58 67 67 67 66 66 65 64 64 64 64 64 62 62 62 62 61 57 54 51 45 39
19 16 18 22 26 24 20 20 22 20 20 22 24 30 36 39 38 37 36 37 38 42 46 49 50 50 48 51 63 66 67 67 66 66 66 65 64 64 63 62 61 59 57 55 53 51 48 45 43
24 20 20 27 28 23 21 22 21 20 20 26 24 30 33 37 38 36 35 35 39 44 46 48 50 51 51 49 59 64 64 64 63 65 64 65 64 63 62 62 61 61 58 54 53 51 49 47 46
19 22 25 28 27 26 28 24 22 23 30 28 28 30 32 35 36 35 35 37 42 45 46 48 50 51 52 51 62 61 61 61 61 63 65 64 63 63 63 62 61 60 58 56 53 51 51 50 48
26 27 25 27 27 26 25 25 26 25 28 28 29 29 31 33 33 33 36 39 43 46 47 48 50 52 55 57 59 58 59 59 59 60 61 62 63 61 60 59 58 57 56 55 53 51 51 50 49
26 19 21 21 27 25 25 23 23 25 28 27 28 29 30 31 32 33 36 39 43 46 47 48 50 53 55 56 55 56 56 56 57 57 58 59 59 58 57 56 56 55 55 54 52 49 48 46 46
21 22 20 22 26 26 21 18 21 26 27 27 27 28 29 30 31 32 35 37 44 45 47 48 50 52 52 52 52 52 52 53 53 55 55 55 55 56 55 54 53 53 52 50 47 44 42 43 42
23 20 21 21 26 25 22 21 24 27 27 26 27 27 28 29 29 32 33 36 45 46 46 46 47 49 49 49 49 48 48 49 51 52 52 52 52 52 52 51 50 48 45 42 38 38 40 41 39
20 22 21 21 24 24 23 23 24 26 26 26 26 27 27 28 28 30 32 38 44 45 45 45 46 47 46 44 43 42 41 40 42 45 47 47 47 46 46 45 44 43 36 32 34 35 36 40 38
22 21 21 23 25 23 23 23 23 24 26 26 26 26 26 27 28 30 32 39 43 44 44 44 44 45 43 43 43 42 40 38 38 39 41 41 41 39 40 39 39 38 32 30 30 31 35 32 34
23 23 22 24 25 24 24 23 24 25 25 25 26 26 26 27 27 29 32 40 43 44 44 44 44 44 44 44 40 37 34 30 31 33 34 35 34 34 34 35 33 30 28 26 25 26 25 24 25
25 23 23 23 25 24 24 22 23 24 26 26 26 26 26 26 27 27 31 38 42 43 44 44 44 44 44 39 32 29 29 29 30 29 29 28 28 29 30 28 27 24 24 23 23 22 20 20 22
24 27 26 25 24 22 26 20 23 24 24 26 26 26 26 26 27 27 30 37 41 43 44 44 44 44 39 34 32 33 33 29 29 27 27 26 26 26 26 25 24 24 23 21 21 20 19 19 16
27 28 26 25 26 24 25 22 22 26 25 26 26 27 27 27 27 27 29 34 40 43 44 44 44 41 35 34 34 34 31 26 26 26 24 23 24 25 25 24 22 22 22 21 19 17 17 18 16
29 28 28 29 26 23 24 23 20 23 25 26 27 28 29 28 27 28 29 34 40 42 43 43 43 38 35 34 32 31 27 24 24 23 22 23 23 23 23 22 22 21 20 19 20 19 17 18 18
27 25 22 21 21 21 26 23 20 23 26 27 26 28 29 30 27 28 30 35 40 40 42 43 41 36 34 33 30 28 27 24 23 21 21 21 21 20 20 20 20 20 20 20 19 18 17 16 17
27 25 23 17 19 20 26 24 25 29 29 29 30 30 30 28 27 28 30 34 39 40 41 42 40 36 33 31 30 27 25 23 22 20 20 19 18 19 20 20 19 19 19 18 18 19 19 19 19
26 25 27 23 16 21 22 24 26 29 28 28 29 29 29 28 27 28 31 34 38 40 40 42 39 35 33 30 27 25 23 21 20 20 20 19 20 18 19 18 18 18 18 18 19 19 19 19 19
26 29 25 26 15 15 21 23 23 27 27 28 28 28 29 28 27 28 31 34 37 39 39 38 37 33 31 28 26 24 21 20 19 19 19 18 18 17 18 18 17 18 19 19 19 19 19 19 19
28 27 27 27 25 21 18 20 27 27 27 27 28 28 28 28 26 27 30 33 35 36 35 33 32 31 30 27 25 23 21 19 19 18 18 17 16 17 17 17 18 18 18 18 18 18 18 17 17
29 27 27 24 22 25 24 21 26 28 28 28 27 28 29 28 27 27 28 30 31 33 32 33 31 29 28 26 24 22 21 20 18 17 17 18 16 17 17 18 18 18 18 18 16 16 16 16 16

GFSSGP_sfc_dewp_048.txt.gz
Dewpoint
54 43 40 29 19 22 21 21 29 20 25 35 35 29 28 42 31 23 51 60 67 68 69 70 71 72 72 72 71 72 72 71 70 70 69 67 66 64 64 64 63 62 62 61 61 64 65 68 68
50 38 33 24 18 15 16 26 19 20 35 38 34 36 41 43 49 53 57 66 68 68 69 70 70 72 72 72 72 71 71 71 70 69 69 67 65 64 62 61 61 60 60 60 61 63 66 67 66
41 33 26 21 18 13 17 20 20 27 36 24 35 40 43 45 50 52 56 68 69 68 69 69 70 72 72 72 71 71 71 71 70 69 68 67 65 65 63 62 59 58 57 58 60 62 64 66 65
34 30 22 17 20 18 21 20 21 30 27 30 38 41 45 49 49 54 64 68 68 68 69 69 70 72 71 71 71 70 70 70 69 69 68 67 66 66 65 63 60 56 55 56 59 60 62 63 62
31 25 18 18 16 20 23 20 24 25 21 28 30 37 44 50 56 58 65 67 67 67 68 69 70 71 71 71 71 71 70 70 70 69 68 67 66 66 65 64 61 57 54 54 57 58 59 59 58
26 23 16 17 22 22 25 20 21 20 22 30 38 43 44 45 54 56 65 65 66 67 68 68 68 69 70 71 71 71 71 71 70 70 69 68 66 66 65 64 62 59 56 53 54 54 55 56 54
23 22 19 18 21 22 19 20 17 17 24 24 37 36 40 45 53 55 59 61 63 66 67 67 67 67 67 68 69 69 70 70 70 70 69 69 68 67 66 65 63 61 59 56 54 53 54 53 52
23 21 15 23 16 17 22 17 16 18 19 29 32 30 39 45 52 49 51 53 55 59 63 65 67 67 67 67 65 66 67 68 68 68 67 66 66 66 65 64 63 61 59 57 55 54 53 52 51
18 14 14 14 16 16 19 18 20 23 24 26 28 33 36 49 46 47 48 47 49 49 50 53 62 64 66 65 65 63 65 66 66 65 64 63 65 64 63 63 63 62 60 57 54 51 51 51 50
16 14 15 17 16 27 20 19 22 21 23 28 29 30 43 46 44 50 51 53 49 49 46 47 48 52 54 62 67 66 66 66 65 65 64 64 63 64 64 61 61 62 60 57 54 51 47 42 38
17 12 18 21 25 24 20 19 21 21 21 21 23 29 42 42 44 50 50 51 49 45 45 48 49 50 50 54 64 67 67 66 65 66 65 65 64 64 63 62 60 57 55 52 50 47 45 43 41
25 20 18 25 27 22 20 21 22 20 20 26 23 32 41 41 41 43 45 43 41 42 45 48 49 50 50 50 57 63 65 66 65 65 65 64 64 63 62 62 60 58 55 52 50 49 47 47 44
23 21 24 27 26 30 27 24 21 22 22 28 27 35 39 41 39 38 37 36 38 42 45 48 49 50 51 49 62 61 63 63 63 65 65 64 63 62 62 62 61 58 56 53 51 50 49 47 44
25 26 25 26 26 25 26 31 33 28 27 27 27 31 36 38 39 36 35 35 39 43 45 47 49 50 52 53 59 60 61 61 62 62 64 64 63 62 61 60 59 57 56 54 53 51 50 48 44
25 24 21 20 26 25 28 21 23 25 27 26 27 28 30 33 35 36 35 36 39 44 45 47 49 51 54 54 58 58 59 59 59 59 60 62 62 61 60 58 56 56 55 53 51 49 49 44 39
22 22 21 21 26 25 20 17 19 24 26 26 27 27 29 30 32 33 34 36 40 44 45 47 51 53 54 52 55 54 55 55 56 57 57 58 59 59 57 56 55 54 53 50 47 45 43 40 36
22 18 21 20 26 24 21 19 23 27 26 25 26 27 28 29 30 31 32 35 39 44 45 47 47 52 52 50 51 50 51 52 53 54 54 54 55 56 55 54 53 50 47 45 42 42 40 36 33
20 21 22 21 26 24 23 22 23 25 26 26 26 27 27 28 29 30 32 34 40 44 45 46 46 48 49 47 45 45 45 44 47 50 51 51 50 51 51 49 46 43 39 39 40 40 39 37 28
20 22 24 22 24 23 23 23 23 24 26 25 26 26 26 27 28 29 31 33 41 43 44 45 45 48 46 45 45 44 44 41 42 44 46 47 46 47 47 44 40 34 35 37 40 38 36 33 30
23 25 22 23 25 24 24 24 25 25 25 25 25 26 26 27 27 28 30 33 40 43 44 44 45 47 46 45 42 41 38 34 36 37 38 40 41 41 42 41 34 31 32 35 36 34 28 25 27
23 22 22 22 25 26 24 23 23 24 25 25 26 26 26 26 27 27 29 31 38 42 44 45 45 45 45 43 34 32 33 33 33 33 35 33 35 36 37 34 30 27 31 33 28 29 28 23 21
23 26 25 24 24 22 25 19 22 23 23 25 25 26 26 26 27 27 28 30 36 40 44 45 45 45 44 36 36 38 35 34 34 32 30 29 30 31 31 28 25 25 25 25 24 22 21 22 17
25 28 27 27 25 24 23 22 22 26 24 24 24 26 27 27 27 27 28 29 33 39 44 45 44 44 42 37 38 38 36 30 29 29 27 27 26 27 26 24 22 22 22 21 20 17 17 17 17
29 27 27 29 26 22 24 22 19 22 23 24 25 26 27 28 28 27 28 30 34 40 43 44 44 43 38 36 36 38 34 29 29 27 26 25 25 24 23 22 21 21 19 18 18 18 16 17 16
27 25 20 18 20 20 25 22 19 21 22 25 25 25 27 29 28 28 28 31 37 40 42 43 44 42 38 36 35 35 33 30 30 26 25 23 22 21 20 20 20 19 19 18 18 17 16 15 15
26 25 22 13 16 17 25 23 23 27 27 27 27 28 30 29 28 28 29 31 37 40 41 43 43 41 37 36 34 32 31 31 31 27 24 22 20 20 20 19 18 18 17 17 16 16 18 18 18
26 25 26 20 14 19 18 20 23 26 27 28 29 29 30 30 29 29 29 32 37 39 40 42 42 41 37 36 33 30 29 28 27 24 22 21 20 19 19 18 17 17 17 16 16 17 18 18 18
26 29 24 25 16 14 18 20 20 23 25 26 27 28 29 29 29 28 29 32 36 38 40 42 42 40 36 34 32 30 28 27 25 23 21 20 19 18 18 17 17 17 17 17 17 18 18 18 19
27 27 26 26 24 18 16 15 26 23 24 24 26 28 29 29 29 28 29 32 36 37 39 40 40 37 34 33 30 28 27 25 23 23 21 19 18 17 17 16 16 17 17 17 17 17 17 17 17
27 26 26 22 20 24 23 18 26 27 27 28 27 27 31 29 29 28 28 32 34 35 36 37 38 36 35 31 27 26 24 23 22 21 19 19 17 17 16 16 17 17 17 18 16 16 17 16 15